Wetterdaten: Donnerstag, 29.06.2017
Datum Zeit Temp. Aussen Temp. o. S. +5cm Feuchte Auss BlattFeu 1 Luftdruck Regen Sonnenschein Regendauer Solar Windben Empfang
29.06.2017 00:00 17,7 C 16,7 C 15,0 C 88 % 1 lf 994,2 hPa 0,0 l/m 0 min 0 min 0 W/m 0,0 km/h (0 Bft) 93,62 %
29.06.2017 00:02 17,7 C 16,7 C 14,4 C 88 % 1 lf 994,3 hPa 0,0 l/m 0 min 0 min 0 W/m 0,0 km/h (0 Bft) 97,37 %
29.06.2017 00:04 17,7 C 16,7 C 15,0 C 88 % 1 lf 994,2 hPa 0,0 l/m 0 min 0 min 3 W/m 4,2 km/h (1 Bft) 95,74 %
29.06.2017 00:06 17,7 C 16,7 C 15,0 C 88 % 1 lf 994,2 hPa 0,0 l/m 0 min 0 min 5 W/m 4,2 km/h (1 Bft) 95,74 %
29.06.2017 00:10 17,7 C 16,7 C 15,0 C 88 % 1 lf 994,2 hPa 0,0 l/m 0 min 0 min 0 W/m 4,2 km/h (1 Bft) 97,87 %
29.06.2017 00:12 17,6 C 16,7 C 15,0 C 88 % 1 lf 994,2 hPa 0,0 l/m 0 min 0 min 0 W/m 8,4 km/h (2 Bft) 97,87 %
29.06.2017 00:14 17,6 C 16,7 C 15,0 C 88 % 1 lf 994,2 hPa 0,0 l/m 0 min 0 min 0 W/m 4,2 km/h (1 Bft) 97,87 %
29.06.2017 00:16 17,6 C 16,7 C 15,0 C 89 % 1 lf 994,1 hPa 0,0 l/m 0 min 0 min 0 W/m 4,2 km/h (1 Bft) 95,74 %
29.06.2017 00:18 17,6 C 16,7 C 15,0 C 89 % 1 lf 994,2 hPa 0,0 l/m 0 min 0 min 0 W/m 4,2 km/h (1 Bft) 97,87 %
29.06.2017 00:20 17,5 C 16,7 C 15,0 C 89 % 1 lf 994,2 hPa 0,0 l/m 0 min 0 min 0 W/m 4,2 km/h (1 Bft) 95,65 %
29.06.2017 00:22 17,5 C 16,1 C 14,4 C 89 % 1 lf 994,1 hPa 0,0 l/m 0 min 0 min 4 W/m 2,1 km/h (1 Bft) 97,92 %
29.06.2017 00:24 17,5 C 16,1 C 14,4 C 89 % 1 lf 994,2 hPa 0,0 l/m 0 min 0 min 5 W/m 2,1 km/h (1 Bft) 95,74 %
29.06.2017 00:26 17,4 C 16,7 C 14,4 C 89 % 1 lf 994,1 hPa 0,0 l/m 0 min 0 min 5 W/m 4,2 km/h (1 Bft) 97,87 %
29.06.2017 00:28 17,4 C 16,7 C 14,4 C 89 % 1 lf 994,0 hPa 0,0 l/m 0 min 0 min 0 W/m 4,2 km/h (1 Bft) 97,87 %
29.06.2017 00:30 17,4 C 16,7 C 14,4 C 89 % 1 lf 994,0 hPa 0,0 l/m 0 min 0 min 0 W/m 4,2 km/h (1 Bft) 93,62 %
29.06.2017 00:32 17,4 C 16,7 C 14,4 C 89 % 1 lf 993,9 hPa 0,0 l/m 0 min 0 min 5 W/m 2,1 km/h (1 Bft) 95,74 %
29.06.2017 00:34 17,4 C 16,7 C 14,4 C 89 % 1 lf 993,9 hPa 0,0 l/m 0 min 0 min 5 W/m 4,2 km/h (1 Bft) 95,74 %
29.06.2017 00:36 17,4 C 16,7 C 14,4 C 89 % 1 lf 993,9 hPa 0,0 l/m 0 min 0 min 5 W/m 6,3 km/h (2 Bft) 93,75 %
29.06.2017 00:38 17,3 C 16,7 C 14,4 C 89 % 1 lf 993,9 hPa 0,0 l/m 0 min 0 min 0 W/m 4,2 km/h (1 Bft) 91,49 %
29.06.2017 00:40 17,3 C 16,7 C 14,4 C 89 % 1 lf 993,9 hPa 0,0 l/m 0 min 0 min 0 W/m 4,2 km/h (1 Bft) 95,74 %
29.06.2017 00:42 17,3 C 16,7 C 14,4 C 89 % 1 lf 993,9 hPa 0,0 l/m 0 min 0 min 0 W/m 4,2 km/h (1 Bft) 91,49 %
29.06.2017 00:44 17,3 C 16,7 C 14,4 C 89 % 1 lf 993,9 hPa 0,0 l/m 0 min 0 min 2 W/m 4,2 km/h (1 Bft) 95,74 %
29.06.2017 00:46 17,3 C 16,7 C 14,4 C 89 % 1 lf 993,8 hPa 0,0 l/m 0 min 0 min 4 W/m 0,0 km/h (0 Bft) 95,65 %
29.06.2017 00:48 17,2 C 16,7 C 14,4 C 89 % 1 lf 993,8 hPa 0,0 l/m 0 min 0 min 5 W/m 4,2 km/h (1 Bft) 97,87 %
29.06.2017 00:50 17,2 C 16,7 C 14,4 C 89 % 1 lf 993,8 hPa 0,0 l/m 0 min 0 min 5 W/m 2,1 km/h (1 Bft) 95,74 %
29.06.2017 00:52 17,2 C 16,7 C 14,4 C 90 % 1 lf 993,8 hPa 0,0 l/m 0 min 0 min 3 W/m 0,0 km/h (0 Bft) 97,87 %
29.06.2017 00:54 17,2 C 16,7 C 14,4 C 90 % 1 lf 993,9 hPa 0,0 l/m 0 min 0 min 0 W/m 0,0 km/h (0 Bft) 97,87 %
29.06.2017 00:56 17,2 C 16,7 C 14,4 C 90 % 1 lf 993,8 hPa 0,0 l/m 0 min 0 min 0 W/m 0,0 km/h (0 Bft) 95,74 %
29.06.2017 00:58 17,2 C 16,7 C 14,4 C 90 % 2 lf 993,8 hPa 0,0 l/m 0 min 0 min 0 W/m 0,0 km/h (0 Bft) 100,00 %
29.06.2017 01:00 17,2 C 16,1 C 13,9 C 90 % 2 lf 993,8 hPa 0,0 l/m 0 min 0 min 0 W/m 0,0 km/h (0 Bft) 95,74 %
29.06.2017 01:02 17,1 C 16,1 C 13,9 C 90 % 2 lf 993,8 hPa 0,0 l/m 0 min 0 min 0 W/m 0,0 km/h (0 Bft) 95,74 %
29.06.2017 01:04 17,1 C 16,1 C 13,9 C 90 % 2 lf 993,7 hPa 0,0 l/m 0 min 0 min 0 W/m 0,0 km/h (0 Bft) 100,00 %
29.06.2017 01:06 17,1 C 16,1 C 13,9 C 90 % 2 lf 993,7 hPa 0,0 l/m 0 min 0 min 0 W/m 0,0 km/h (0 Bft) 95,24 %
29.06.2017 01:08 17,1 C 16,1 C 13,9 C 90 % 2 lf 993,7 hPa 0,0 l/m 0 min 0 min 0 W/m 0,0 km/h (0 Bft) 97,83 %
29.06.2017 01:10 17,1 C 16,1 C 13,9 C 90 % 2 lf 993,7 hPa 0,0 l/m 0 min 0 min 0 W/m 0,0 km/h (0 Bft) 97,87 %
29.06.2017 01:12 17,0 C 16,1 C 13,9 C 90 % 2 lf 993,8 hPa 0,0 l/m 0 min 0 min 0 W/m 0,0 km/h (0 Bft) 100,00 %
29.06.2017 01:14 17,0 C 15,6 C 13,9 C 90 % 2 lf 993,8 hPa 0,0 l/m 0 min 0 min 0 W/m 0,0 km/h (0 Bft) 100,00 %
29.06.2017 01:16 17,0 C 15,6 C 13,9 C 90 % 2 lf 993,8 hPa 0,0 l/m 0 min 0 min 0 W/m 0,0 km/h (0 Bft) 100,00 %
29.06.2017 01:18 16,9 C 15,6 C 13,9 C 90 % 2 lf 993,8 hPa 0,0 l/m 0 min 0 min 0 W/m 0,0 km/h (0 Bft) 100,00 %
29.06.2017 01:20 16,9 C 15,6 C 13,9 C 90 % 3 lf 993,8 hPa 0,0 l/m 0 min 0 min 0 W/m 0,0 km/h (0 Bft) 100,00 %
29.06.2017 01:22 16,9 C 15,6 C 13,9 C 90 % 3 lf 993,7 hPa 0,0 l/m 0 min 0 min 0 W/m 0,0 km/h (0 Bft) 95,83 %
29.06.2017 01:24 16,9 C 15,6 C 13,9 C 90 % 3 lf 993,8 hPa 0,0 l/m 0 min 0 min 0 W/m 0,0 km/h (0 Bft) 100,00 %
29.06.2017 01:26 16,8 C 15,6 C 13,9 C 90 % 3 lf 993,8 hPa 0,0 l/m 0 min 0 min 0 W/m 0,0 km/h (0 Bft) 100,00 %
29.06.2017 01:28 16,8 C 15,6 C 13,9 C 90 % 3 lf 993,8 hPa 0,0 l/m 0 min 0 min 0 W/m 0,0 km/h (0 Bft) 100,00 %
29.06.2017 01:30 16,8 C 15,6 C 13,9 C 90 % 3 lf 993,8 hPa 0,0 l/m 0 min 0 min 0 W/m 0,0 km/h (0 Bft) 100,00 %
29.06.2017 01:32 16,8 C 15,6 C 13,9 C 90 % 3 lf 993,9 hPa 0,0 l/m 0 min 0 min 0 W/m 0,0 km/h (0 Bft) 100,00 %
29.06.2017 01:34 16,8 C 15,6 C 13,3 C 90 % 3 lf 993,8 hPa 0,0 l/m 0 min 0 min 0 W/m 0,0 km/h (0 Bft) 100,00 %
29.06.2017 01:36 16,7 C 15,6 C 13,9 C 90 % 4 lf 993,8 hPa 0,0 l/m 0 min 0 min 0 W/m 0,0 km/h (0 Bft) 100,00 %
29.06.2017 01:38 16,7 C 15,6 C 13,9 C 90 % 4 lf 993,8 hPa 0,0 l/m 0 min 0 min 0 W/m 0,0 km/h (0 Bft) 100,00 %
29.06.2017 01:40 16,7 C 15,6 C 13,9 C 91 % 4 lf 993,8 hPa 0,0 l/m 0 min 0 min 0 W/m 0,0 km/h (0 Bft) 100,00 %
29.06.2017 01:42 16,7 C 15,6 C 13,3 C 91 % 4 lf 993,8 hPa 0,0 l/m 0 min 0 min 0 W/m 0,0 km/h (0 Bft) 97,87 %
29.06.2017 01:44 16,7 C 15,6 C 13,3 C 91 % 4 lf 993,8 hPa 0,0 l/m 0 min 0 min 0 W/m 0,0 km/h (0 Bft) 95,65 %
29.06.2017 01:46 16,7 C 15,6 C 13,3 C 91 % 4 lf 993,9 hPa 0,0 l/m 0 min 0 min 0 W/m 0,0 km/h (0 Bft) 100,00 %
29.06.2017 01:48 16,6 C 15,6 C 13,3 C 91 % 4 lf 993,9 hPa 0,0 l/m 0 min 0 min 0 W/m 0,0 km/h (0 Bft) 100,00 %
29.06.2017 01:50 16,6 C 15,6 C 13,3 C 91 % 4 lf 993,9 hPa 0,0 l/m 0 min 0 min 0 W/m 0,0 km/h (0 Bft) 100,00 %
29.06.2017 01:52 16,6 C 15,6 C 13,3 C 91 % 4 lf 993,9 hPa 0,0 l/m 0 min 0 min 0 W/m 0,0 km/h (0 Bft) 97,87 %
29.06.2017 01:54 16,6 C 15,6 C 13,3 C 91 % 4 lf 993,9 hPa 0,0 l/m 0 min 0 min 5 W/m 0,0 km/h (0 Bft) 97,87 %
29.06.2017 01:56 16,5 C 15,6 C 13,3 C 91 % 4 lf 994,0 hPa 0,0 l/m 0 min 0 min 0 W/m 0,0 km/h (0 Bft) 100,00 %
29.06.2017 01:58 16,5 C 15,6 C 13,3 C 91 % 4 lf 993,9 hPa 0,0 l/m 0 min 0 min 5 W/m 0,0 km/h (0 Bft) 100,00 %
29.06.2017 02:00 16,4 C 15,6 C 13,3 C 91 % 4 lf 994,0 hPa 0,0 l/m 0 min 0 min 5 W/m 0,0 km/h (0 Bft) 97,87 %
29.06.2017 02:02 16,4 C 15,6 C 13,3 C 91 % 4 lf 993,9 hPa 0,0 l/m 0 min 0 min 5 W/m 0,0 km/h (0 Bft) 91,49 %
29.06.2017 02:04 16,4 C 15,6 C 13,3 C 91 % 5 lf 993,9 hPa 0,0 l/m 0 min 0 min 5 W/m 0,0 km/h (0 Bft) 91,49 %
29.06.2017 02:06 16,4 C 15,0 C 13,3 C 91 % 5 lf 993,9 hPa 0,0 l/m 0 min 0 min 5 W/m 0,0 km/h (0 Bft) 97,14 %
29.06.2017 02:08 16,3 C 15,0 C 13,3 C 91 % 6 lf 993,9 hPa 0,0 l/m 0 min 0 min 5 W/m 0,0 km/h (0 Bft) 91,49 %
29.06.2017 02:10 16,3 C 15,0 C 13,3 C 91 % 6 lf 993,9 hPa 0,0 l/m 0 min 0 min 5 W/m 0,0 km/h (0 Bft) 93,48 %
29.06.2017 02:12 16,3 C 15,0 C 13,3 C 91 % 6 lf 993,9 hPa 0,0 l/m 0 min 0 min 5 W/m 0,0 km/h (0 Bft) 93,62 %
29.06.2017 02:14 16,3 C 15,0 C 13,3 C 91 % 6 lf 993,8 hPa 0,0 l/m 0 min 0 min 5 W/m 0,0 km/h (0 Bft) 95,74 %
29.06.2017 02:16 16,2 C 15,0 C 13,3 C 91 % 6 lf 993,8 hPa 0,0 l/m 0 min 0 min 5 W/m 0,0 km/h (0 Bft) 93,62 %
29.06.2017 02:18 16,2 C 15,0 C 13,3 C 91 % 6 lf 993,7 hPa 0,0 l/m 0 min 0 min 5 W/m 0,0 km/h (0 Bft) 93,62 %
29.06.2017 02:20 16,2 C 15,0 C 13,3 C 91 % 7 lf 993,8 hPa 0,0 l/m 0 min 0 min 5 W/m 0,0 km/h (0 Bft) 95,74 %
29.06.2017 02:22 16,2 C 15,0 C 13,3 C 91 % 7 lf 993,9 hPa 0,0 l/m 0 min 0 min 5 W/m 0,0 km/h (0 Bft) 95,65 %
29.06.2017 02:24 16,1 C 15,0 C 13,3 C 91 % 7 lf 993,9 hPa 0,0 l/m 0 min 0 min 5 W/m 0,0 km/h (0 Bft) 91,49 %
29.06.2017 02:26 16,1 C 15,0 C 13,3 C 91 % 8 lf 993,9 hPa 0,0 l/m 0 min 0 min 5 W/m 0,0 km/h (0 Bft) 91,49 %
29.06.2017 02:28 16,1 C 15,0 C 13,3 C 91 % 8 lf 994,0 hPa 0,0 l/m 0 min 0 min 5 W/m 0,0 km/h (0 Bft) 93,62 %
29.06.2017 02:30 16,1 C 15,0 C 13,3 C 91 % 9 lf 993,9 hPa 0,0 l/m 0 min 0 min 5 W/m 0,0 km/h (0 Bft) 93,62 %
29.06.2017 02:32 16,0 C 15,0 C 13,3 C 91 % 9 lf 993,9 hPa 0,0 l/m 0 min 0 min 5 W/m 0,0 km/h (0 Bft) 94,34 %
29.06.2017 02:34 16,0 C 15,0 C 13,3 C 91 % 9 lf 993,9 hPa 0,0 l/m 0 min 0 min 5 W/m 0,0 km/h (0 Bft) 93,62 %
29.06.2017 02:36 15,9 C 14,4 C 13,3 C 91 % 10 lf 993,9 hPa 0,0 l/m 0 min 0 min 5 W/m 0,0 km/h (0 Bft) 92,00 %
29.06.2017 02:38 15,9 C 14,4 C 13,3 C 91 % 10 lf 993,9 hPa 0,0 l/m 0 min 0 min 5 W/m 0,0 km/h (0 Bft) 93,62 %
29.06.2017 02:40 15,9 C 14,4 C 13,3 C 91 % 10 lf 993,9 hPa 0,0 l/m 0 min 0 min 5 W/m 0,0 km/h (0 Bft) 91,30 %
29.06.2017 02:42 15,9 C 14,4 C 13,3 C 91 % 9 lf 993,9 hPa 0,0 l/m 0 min 0 min 5 W/m 0,0 km/h (0 Bft) 87,23 %
29.06.2017 02:44 15,9 C 14,4 C 13,3 C 91 % 9 lf 993,8 hPa 0,0 l/m 0 min 0 min 5 W/m 0,0 km/h (0 Bft) 93,62 %
29.06.2017 02:46 15,8 C 14,4 C 13,9 C 91 % 9 lf 993,8 hPa 0,0 l/m 0 min 0 min 5 W/m 0,0 km/h (0 Bft) 93,62 %
29.06.2017 02:48 15,8 C 14,4 C 13,9 C 91 % 8 lf 993,8 hPa 0,0 l/m 0 min 0 min 5 W/m 0,0 km/h (0 Bft) 97,87 %
29.06.2017 02:50 15,8 C 14,4 C 13,9 C 91 % 7 lf 993,8 hPa 0,0 l/m 0 min 0 min 5 W/m 0,0 km/h (0 Bft) 95,74 %
29.06.2017 02:52 15,8 C 15,0 C 13,9 C 91 % 7 lf 993,8 hPa 0,0 l/m 0 min 0 min 5 W/m 0,0 km/h (0 Bft) 95,65 %
29.06.2017 02:54 15,8 C 15,0 C 13,9 C 92 % 7 lf 993,9 hPa 0,0 l/m 0 min 0 min 5 W/m 0,0 km/h (0 Bft) 97,87 %
29.06.2017 02:56 15,8 C 15,0 C 13,9 C 92 % 6 lf 993,8 hPa 0,0 l/m 0 min 0 min 5 W/m 0,0 km/h (0 Bft) 97,87 %
29.06.2017 02:58 15,8 C 15,0 C 13,9 C 92 % 5 lf 993,8 hPa 0,0 l/m 0 min 0 min 5 W/m 0,0 km/h (0 Bft) 100,00 %
29.06.2017 03:00 15,8 C 15,0 C 13,9 C 92 % 5 lf 993,9 hPa 0,0 l/m 0 min 0 min 5 W/m 0,0 km/h (0 Bft) 100,00 %
29.06.2017 03:02 15,8 C 15,6 C 13,9 C 92 % 5 lf 993,8 hPa 0,0 l/m 0 min 0 min 5 W/m 0,0 km/h (0 Bft) 97,92 %
29.06.2017 03:04 15,7 C 15,6 C 13,9 C 92 % 5 lf 993,8 hPa 0,0 l/m 0 min 0 min 5 W/m 0,0 km/h (0 Bft) 97,83 %
29.06.2017 03:06 15,8 C 15,6 C 13,9 C 92 % 5 lf 993,8 hPa 0,0 l/m 0 min 0 min 5 W/m 0,0 km/h (0 Bft) 100,00 %
29.06.2017 03:08 15,7 C 15,6 C 13,9 C 92 % 4 lf 993,9 hPa 0,0 l/m 0 min 0 min 5 W/m 0,0 km/h (0 Bft) 100,00 %
29.06.2017 03:10 15,8 C 15,6 C 13,9 C 93 % 4 lf 993,8 hPa 0,0 l/m 0 min 0 min 5 W/m 0,0 km/h (0 Bft) 97,87 %
29.06.2017 03:12 15,8 C 15,6 C 13,9 C 93 % 4 lf 993,9 hPa 0,0 l/m 0 min 0 min 5 W/m 0,0 km/h (0 Bft) 100,00 %
29.06.2017 03:14 15,8 C 15,6 C 13,9 C 93 % 4 lf 993,9 hPa 0,0 l/m 0 min 0 min 5 W/m 0,0 km/h (0 Bft) 100,00 %
29.06.2017 03:16 15,8 C 15,6 C 13,9 C 93 % 4 lf 993,9 hPa 0,0 l/m 0 min 0 min 5 W/m 0,0 km/h (0 Bft) 97,87 %
29.06.2017 03:18 15,8 C 15,6 C 13,9 C 93 % 4 lf 993,8 hPa 0,0 l/m 0 min 0 min 5 W/m 0,0 km/h (0 Bft) 97,83 %
29.06.2017 03:20 15,8 C 15,6 C 13,9 C 93 % 4 lf 993,9 hPa 0,0 l/m 0 min 0 min 5 W/m 0,0 km/h (0 Bft) 97,87 %
29.06.2017 03:22 15,8 C 15,6 C 13,9 C 93 % 4 lf 993,9 hPa 0,0 l/m 0 min 0 min 0 W/m 6,3 km/h (2 Bft) 100,00 %
29.06.2017 03:24 15,8 C 15,6 C 13,9 C 94 % 4 lf 994,0 hPa 0,0 l/m 0 min 0 min 0 W/m 6,3 km/h (2 Bft) 100,00 %
29.06.2017 03:26 15,8 C 15,6 C 14,4 C 94 % 4 lf 994,0 hPa 0,0 l/m 0 min 0 min 0 W/m 4,2 km/h (1 Bft) 93,62 %
29.06.2017 03:28 15,9 C 15,6 C 14,4 C 94 % 3 lf 994,1 hPa 0,0 l/m 0 min 0 min 0 W/m 4,2 km/h (1 Bft) 100,00 %
29.06.2017 03:30 15,9 C 15,6 C 14,4 C 94 % 3 lf 994,0 hPa 0,0 l/m 0 min 0 min 0 W/m 4,2 km/h (1 Bft) 97,83 %
29.06.2017 03:32 15,9 C 15,6 C 14,4 C 94 % 3 lf 994,0 hPa 0,0 l/m 0 min 0 min 0 W/m 4,2 km/h (1 Bft) 97,87 %
29.06.2017 03:34 15,9 C 15,6 C 14,4 C 94 % 3 lf 994,0 hPa 0,0 l/m 0 min 0 min 0 W/m 2,1 km/h (1 Bft) 95,74 %
29.06.2017 03:36 15,9 C 15,6 C 14,4 C 94 % 3 lf 994,1 hPa 0,0 l/m 0 min 0 min 0 W/m 0,0 km/h (0 Bft) 97,14 %
29.06.2017 03:38 15,9 C 16,1 C 14,4 C 94 % 3 lf 994,1 hPa 0,0 l/m 0 min 0 min 0 W/m 4,2 km/h (1 Bft) 97,87 %
29.06.2017 03:40 15,9 C 15,6 C 14,4 C 94 % 3 lf 994,1 hPa 0,0 l/m 0 min 0 min 0 W/m 4,2 km/h (1 Bft) 97,87 %
29.06.2017 03:42 15,9 C 16,1 C 14,4 C 94 % 3 lf 994,1 hPa 0,0 l/m 0 min 0 min 0 W/m 4,2 km/h (1 Bft) 98,11 %
29.06.2017 03:44 15,9 C 16,1 C 14,4 C 94 % 3 lf 994,1 hPa 0,0 l/m 0 min 0 min 0 W/m 2,1 km/h (1 Bft) 95,74 %
29.06.2017 03:46 15,9 C 15,6 C 14,4 C 94 % 3 lf 994,0 hPa 0,0 l/m 0 min 0 min 0 W/m 2,1 km/h (1 Bft) 97,87 %
29.06.2017 03:48 15,9 C 16,1 C 14,4 C 95 % 3 lf 994,1 hPa 0,0 l/m 0 min 0 min 5 W/m 2,1 km/h (1 Bft) 95,74 %
29.06.2017 03:50 15,9 C 16,1 C 14,4 C 95 % 3 lf 994,0 hPa 0,0 l/m 0 min 0 min 5 W/m 2,1 km/h (1 Bft) 95,74 %
29.06.2017 03:52 15,9 C 16,1 C 14,4 C 95 % 3 lf 994,1 hPa 0,0 l/m 0 min 0 min 5 W/m 0,0 km/h (0 Bft) 97,83 %
29.06.2017 03:54 15,9 C 16,1 C 14,4 C 95 % 3 lf 994,1 hPa 0,0 l/m 0 min 0 min 5 W/m 0,0 km/h (0 Bft) 97,87 %
29.06.2017 03:56 15,9 C 16,1 C 14,4 C 95 % 3 lf 994,1 hPa 0,0 l/m 0 min 0 min 5 W/m 0,0 km/h (0 Bft) 97,87 %
29.06.2017 03:58 15,9 C 16,1 C 14,4 C 95 % 3 lf 994,1 hPa 0,0 l/m 0 min 0 min 5 W/m 0,0 km/h (0 Bft) 95,74 %
29.06.2017 04:00 15,9 C 16,1 C 14,4 C 95 % 3 lf 994,1 hPa 0,0 l/m 0 min 0 min 5 W/m 0,0 km/h (0 Bft) 97,87 %
29.06.2017 04:02 16,0 C 16,1 C 14,4 C 95 % 3 lf 994,0 hPa 0,0 l/m 0 min 0 min 5 W/m 0,0 km/h (0 Bft) 96,77 %
29.06.2017 04:04 15,9 C 15,6 C 14,4 C 95 % 3 lf 993,9 hPa 0,0 l/m 0 min 0 min 5 W/m 0,0 km/h (0 Bft) 100,00 %
29.06.2017 04:06 15,9 C 16,1 C 14,4 C 95 % 3 lf 994,0 hPa 0,0 l/m 0 min 0 min 5 W/m 0,0 km/h (0 Bft) 97,96 %
29.06.2017 04:08 15,9 C 16,1 C 14,4 C 95 % 3 lf 993,9 hPa 0,0 l/m 0 min 0 min 5 W/m 0,0 km/h (0 Bft) 97,87 %
29.06.2017 04:10 15,9 C 16,1 C 14,4 C 95 % 3 lf 994,0 hPa 0,0 l/m 0 min 0 min 5 W/m 0,0 km/h (0 Bft) 95,74 %
29.06.2017 04:12 15,9 C 16,1 C 14,4 C 95 % 3 lf 994,0 hPa 0,0 l/m 0 min 0 min 5 W/m 0,0 km/h (0 Bft) 97,87 %
29.06.2017 04:14 16,0 C 16,1 C 14,4 C 95 % 3 lf 994,0 hPa 0,0 l/m 0 min 0 min 5 W/m 0,0 km/h (0 Bft) 95,74 %
29.06.2017 04:16 15,9 C 16,1 C 14,4 C 95 % 3 lf 993,9 hPa 0,0 l/m 0 min 0 min 5 W/m 0,0 km/h (0 Bft) 95,65 %
29.06.2017 04:18 15,9 C 16,1 C 14,4 C 95 % 3 lf 994,0 hPa 0,0 l/m 0 min 0 min 5 W/m 0,0 km/h (0 Bft) 97,87 %
29.06.2017 04:20 16,0 C 16,1 C 14,4 C 95 % 3 lf 994,0 hPa 0,0 l/m 0 min 0 min 5 W/m 0,0 km/h (0 Bft) 97,87 %
29.06.2017 04:22 16,0 C 16,1 C 14,4 C 95 % 3 lf 993,9 hPa 0,0 l/m 0 min 0 min 5 W/m 0,0 km/h (0 Bft) 95,74 %
29.06.2017 04:24 16,0 C 16,1 C 14,4 C 95 % 3 lf 994,0 hPa 0,0 l/m 0 min 0 min 5 W/m 0,0 km/h (0 Bft) 95,74 %
29.06.2017 04:26 16,0 C 16,1 C 14,4 C 95 % 3 lf 994,0 hPa 0,0 l/m 0 min 0 min 5 W/m 0,0 km/h (0 Bft) 95,74 %
29.06.2017 04:28 16,0 C 16,7 C 14,4 C 95 % 2 lf 994,0 hPa 0,0 l/m 0 min 0 min 5 W/m 0,0 km/h (0 Bft) 93,48 %
29.06.2017 04:30 16,0 C 16,7 C 14,4 C 95 % 2 lf 994,0 hPa 0,0 l/m 0 min 0 min 5 W/m 0,0 km/h (0 Bft) 91,49 %
29.06.2017 04:32 16,0 C 16,1 C 14,4 C 95 % 2 lf 994,0 hPa 0,0 l/m 0 min 0 min 5 W/m 0,0 km/h (0 Bft) 95,74 %
29.06.2017 04:34 16,0 C 16,1 C 15,0 C 95 % 2 lf 994,0 hPa 0,0 l/m 0 min 0 min 5 W/m 0,0 km/h (0 Bft) 97,87 %
29.06.2017 04:36 16,0 C 16,1 C 15,0 C 95 % 2 lf 994,0 hPa 0,0 l/m 0 min 0 min 5 W/m 0,0 km/h (0 Bft) 100,00 %
29.06.2017 04:38 16,0 C 16,7 C 15,0 C 95 % 2 lf 994,0 hPa 0,0 l/m 0 min 0 min 5 W/m 0,0 km/h (0 Bft) 97,87 %
29.06.2017 04:40 16,1 C 16,7 C 15,0 C 95 % 2 lf 994,1 hPa 0,0 l/m 0 min 0 min 5 W/m 0,0 km/h (0 Bft) 95,74 %
29.06.2017 04:42 16,1 C 16,7 C 15,0 C 95 % 2 lf 994,1 hPa 0,0 l/m 0 min 0 min 0 W/m 0,0 km/h (0 Bft) 93,48 %
29.06.2017 04:44 16,1 C 16,7 C 15,0 C 95 % 2 lf 994,1 hPa 0,0 l/m 0 min 0 min 0 W/m 0,0 km/h (0 Bft) 95,74 %
29.06.2017 04:46 16,2 C 16,7 C 15,0 C 95 % 2 lf 994,1 hPa 0,0 l/m 0 min 0 min 0 W/m 0,0 km/h (0 Bft) 97,87 %
29.06.2017 04:48 16,2 C 16,7 C 15,0 C 95 % 2 lf 994,1 hPa 0,0 l/m 0 min 0 min 5 W/m 0,0 km/h (0 Bft) 95,74 %
29.06.2017 04:50 16,2 C 16,7 C 15,6 C 95 % 1 lf 994,2 hPa 0,0 l/m 0 min 0 min 5 W/m 0,0 km/h (0 Bft) 93,22 %
29.06.2017 04:52 16,2 C 16,7 C 15,6 C 95 % 1 lf 994,2 hPa 0,0 l/m 0 min 0 min 5 W/m 0,0 km/h (0 Bft) 95,12 %
29.06.2017 04:54 16,2 C 16,7 C 15,6 C 95 % 1 lf 994,2 hPa 0,0 l/m 0 min 0 min 5 W/m 0,0 km/h (0 Bft) 93,62 %
29.06.2017 04:56 16,2 C 16,7 C 15,6 C 95 % 1 lf 994,2 hPa 0,2 l/m 0 min 0 min 5 W/m 14,6 km/h (3 Bft) 95,74 %
29.06.2017 04:58 16,3 C 16,7 C 15,6 C 95 % 1 lf 994,2 hPa 0,0 l/m 0 min 0 min 0 W/m 10,5 km/h (2 Bft) 95,74 %
29.06.2017 05:00 16,3 C 16,7 C 15,6 C 95 % 1 lf 994,2 hPa 0,0 l/m 0 min 0 min 0 W/m 10,5 km/h (2 Bft) 91,49 %
29.06.2017 05:02 16,3 C 16,7 C 15,6 C 95 % 1 lf 994,3 hPa 0,0 l/m 0 min 0 min 0 W/m 14,6 km/h (3 Bft) 95,65 %
29.06.2017 05:04 16,3 C 16,7 C 15,6 C 95 % 1 lf 994,2 hPa 0,0 l/m 0 min 0 min 7 W/m 6,3 km/h (2 Bft) 95,74 %
29.06.2017 05:06 16,4 C 16,7 C 15,6 C 95 % 1 lf 994,2 hPa 0,0 l/m 0 min 0 min 7 W/m 6,3 km/h (2 Bft) 96,00 %
29.06.2017 05:08 16,4 C 16,7 C 15,6 C 95 % 1 lf 994,2 hPa 0,0 l/m 0 min 0 min 7 W/m 6,3 km/h (2 Bft) 95,74 %
29.06.2017 05:10 16,4 C 16,7 C 15,6 C 95 % 1 lf 994,2 hPa 0,0 l/m 0 min 0 min 7 W/m 4,2 km/h (1 Bft) 93,62 %
29.06.2017 05:12 16,4 C 16,7 C 15,6 C 95 % 1 lf 994,2 hPa 0,0 l/m 0 min 0 min 7 W/m 8,4 km/h (2 Bft) 95,74 %
29.06.2017 05:14 16,4 C 16,7 C 15,6 C 95 % 1 lf 994,1 hPa 0,0 l/m 0 min 0 min 9 W/m 8,4 km/h (2 Bft) 95,65 %
29.06.2017 05:16 16,4 C 16,7 C 15,0 C 95 % 1 lf 994,1 hPa 0,0 l/m 0 min 0 min 9 W/m 2,1 km/h (1 Bft) 89,36 %
29.06.2017 05:18 16,5 C 16,7 C 15,0 C 95 % 1 lf 994,0 hPa 0,0 l/m 0 min 0 min 9 W/m 4,2 km/h (1 Bft) 95,74 %
29.06.2017 05:20 16,5 C 16,7 C 15,0 C 95 % 1 lf 994,1 hPa 0,0 l/m 0 min 0 min 9 W/m 4,2 km/h (1 Bft) 95,74 %
29.06.2017 05:22 16,5 C 16,7 C 15,0 C 95 % 1 lf 994,1 hPa 0,0 l/m 0 min 0 min 9 W/m 4,2 km/h (1 Bft) 91,49 %
29.06.2017 05:24 16,5 C 16,7 C 15,0 C 95 % 1 lf 994,1 hPa 0,0 l/m 0 min 0 min 9 W/m 4,2 km/h (1 Bft) 93,48 %
29.06.2017 05:26 16,5 C 16,7 C 15,0 C 95 % 1 lf 994,1 hPa 0,0 l/m 0 min 0 min 10 W/m 4,2 km/h (1 Bft) 91,49 %
29.06.2017 05:28 16,5 C 16,7 C 15,0 C 94 % 1 lf 994,1 hPa 0,0 l/m 0 min 0 min 11 W/m 2,1 km/h (1 Bft) 95,74 %
29.06.2017 05:30 16,5 C 16,7 C 15,0 C 94 % 1 lf 994,2 hPa 0,0 l/m 0 min 0 min 12 W/m 4,2 km/h (1 Bft) 95,74 %
29.06.2017 05:32 16,5 C 16,7 C 15,0 C 94 % 1 lf 994,1 hPa 0,0 l/m 0 min 0 min 12 W/m 0,0 km/h (0 Bft) 91,67 %
29.06.2017 05:34 16,6 C 16,7 C 15,0 C 94 % 1 lf 994,2 hPa 0,0 l/m 0 min 0 min 11 W/m 2,1 km/h (1 Bft) 95,74 %
29.06.2017 05:36 16,6 C 16,7 C 15,0 C 94 % 1 lf 994,2 hPa 0,0 l/m 0 min 0 min 12 W/m 2,1 km/h (1 Bft) 97,92 %
29.06.2017 05:38 16,6 C 16,7 C 15,0 C 94 % 1 lf 994,2 hPa 0,0 l/m 0 min 0 min 12 W/m 0,0 km/h (0 Bft) 97,83 %
29.06.2017 05:40 16,6 C 16,7 C 15,0 C 94 % 1 lf 994,2 hPa 0,0 l/m 0 min 0 min 12 W/m 0,0 km/h (0 Bft) 97,87 %
29.06.2017 05:42 16,6 C 16,7 C 15,0 C 94 % 1 lf 994,2 hPa 0,0 l/m 0 min 0 min 12 W/m 6,3 km/h (2 Bft) 95,74 %
29.06.2017 05:44 16,6 C 16,7 C 15,0 C 94 % 1 lf 994,2 hPa 0,0 l/m 0 min 0 min 14 W/m 6,3 km/h (2 Bft) 97,87 %
29.06.2017 05:46 16,6 C 16,7 C 15,0 C 94 % 1 lf 994,2 hPa 0,0 l/m 0 min 0 min 14 W/m 6,3 km/h (2 Bft) 100,00 %
29.06.2017 05:48 16,6 C 16,7 C 15,0 C 94 % 1 lf 994,2 hPa 0,0 l/m 0 min 0 min 17 W/m 4,2 km/h (1 Bft) 100,00 %
29.06.2017 05:50 16,6 C 16,7 C 15,0 C 94 % 1 lf 994,1 hPa 0,0 l/m 0 min 0 min 16 W/m 4,2 km/h (1 Bft) 100,00 %
29.06.2017 05:52 16,6 C 16,7 C 15,0 C 94 % 1 lf 994,2 hPa 0,0 l/m 0 min 0 min 16 W/m 8,4 km/h (2 Bft) 97,87 %
29.06.2017 05:54 16,6 C 16,7 C 15,6 C 94 % 2 lf 994,2 hPa 0,0 l/m 0 min 0 min 16 W/m 10,5 km/h (2 Bft) 100,00 %
29.06.2017 05:56 16,6 C 16,7 C 15,0 C 94 % 7 lf 994,2 hPa 0,0 l/m 0 min 2 min 18 W/m 4,2 km/h (1 Bft) 100,00 %
29.06.2017 05:58 16,6 C 16,7 C 15,0 C 94 % 7 lf 994,2 hPa 0,0 l/m 0 min 2 min 16 W/m 6,3 km/h (2 Bft) 100,00 %
29.06.2017 06:00 16,6 C 16,7 C 15,0 C 94 % 4 lf 994,2 hPa 0,0 l/m 0 min 0 min 15 W/m 6,3 km/h (2 Bft) 100,00 %
29.06.2017 06:02 16,6 C 16,7 C 15,0 C 94 % 3 lf 994,2 hPa 0,0 l/m 0 min 0 min 14 W/m 4,2 km/h (1 Bft) 100,00 %
29.06.2017 06:04 16,6 C 16,7 C 15,0 C 94 % 3 lf 994,2 hPa 0,0 l/m 0 min 0 min 17 W/m 2,1 km/h (1 Bft) 97,87 %
29.06.2017 06:06 16,7 C 16,7 C 15,0 C 94 % 2 lf 994,1 hPa 0,0 l/m 0 min 0 min 20 W/m 6,3 km/h (2 Bft) 97,14 %
29.06.2017 06:08 16,7 C 16,7 C 15,0 C 94 % 1 lf 994,1 hPa 0,0 l/m 0 min 0 min 20 W/m 4,2 km/h (1 Bft) 100,00 %
29.06.2017 06:10 16,7 C 16,7 C 15,6 C 94 % 1 lf 994,2 hPa 0,0 l/m 0 min 0 min 20 W/m 4,2 km/h (1 Bft) 100,00 %
29.06.2017 06:12 16,7 C 16,7 C 15,6 C 94 % 1 lf 994,2 hPa 0,0 l/m 0 min 0 min 23 W/m 10,5 km/h (2 Bft) 93,75 %
29.06.2017 06:14 16,7 C 16,7 C 15,6 C 94 % 1 lf 994,1 hPa 0,0 l/m 0 min 0 min 25 W/m 6,3 km/h (2 Bft) 100,00 %
29.06.2017 06:16 16,7 C 17,2 C 15,6 C 94 % 1 lf 994,2 hPa 0,0 l/m 0 min 0 min 27 W/m 6,3 km/h (2 Bft) 97,87 %
29.06.2017 06:18 16,7 C 17,2 C 15,6 C 94 % 1 lf 994,1 hPa 0,0 l/m 0 min 0 min 28 W/m 4,2 km/h (1 Bft) 100,00 %
29.06.2017 06:20 16,8 C 17,2 C 15,6 C 94 % 1 lf 994,1 hPa 0,0 l/m 0 min 0 min 25 W/m 2,1 km/h (1 Bft) 95,74 %
29.06.2017 06:22 16,8 C 17,2 C 15,6 C 94 % 1 lf 994,1 hPa 0,0 l/m 0 min 0 min 26 W/m 6,3 km/h (2 Bft) 97,92 %
29.06.2017 06:24 16,8 C 17,2 C 15,6 C 94 % 1 lf 994,0 hPa 0,0 l/m 0 min 0 min 30 W/m 6,3 km/h (2 Bft) 95,65 %
29.06.2017 06:26 16,8 C 17,2 C 15,6 C 94 % 1 lf 994,1 hPa 0,0 l/m 0 min 0 min 33 W/m 4,2 km/h (1 Bft) 97,87 %
29.06.2017 06:28 16,8 C 17,2 C 16,1 C 94 % 1 lf 994,1 hPa 0,0 l/m 0 min 0 min 36 W/m 10,5 km/h (2 Bft) 97,87 %
29.06.2017 06:30 16,8 C 17,2 C 16,1 C 94 % 1 lf 994,1 hPa 0,0 l/m 0 min 0 min 32 W/m 6,3 km/h (2 Bft) 97,87 %
29.06.2017 06:32 16,8 C 17,2 C 16,1 C 94 % 1 lf 994,1 hPa 0,0 l/m 0 min 0 min 34 W/m 4,2 km/h (1 Bft) 95,83 %
29.06.2017 06:34 16,8 C 17,2 C 16,1 C 94 % 1 lf 994,1 hPa 0,0 l/m 0 min 0 min 39 W/m 10,5 km/h (2 Bft) 97,87 %
29.06.2017 06:36 16,9 C 17,2 C 16,1 C 94 % 1 lf 994,1 hPa 0,0 l/m 0 min 0 min 40 W/m 8,4 km/h (2 Bft) 97,96 %
29.06.2017 06:38 16,9 C 17,2 C 16,1 C 94 % 1 lf 994,1 hPa 0,0 l/m 0 min 0 min 39 W/m 6,3 km/h (2 Bft) 97,83 %
29.06.2017 06:40 16,9 C 17,2 C 16,1 C 94 % 1 lf 994,1 hPa 0,0 l/m 0 min 0 min 40 W/m 8,4 km/h (2 Bft) 97,87 %
29.06.2017 06:42 16,9 C 17,2 C 16,1 C 94 % 1 lf 994,1 hPa 0,0 l/m 0 min 0 min 40 W/m 6,3 km/h (2 Bft) 97,87 %
29.06.2017 06:44 16,9 C 17,2 C 16,1 C 94 % 1 lf 994,2 hPa 0,0 l/m 0 min 0 min 38 W/m 6,3 km/h (2 Bft) 93,62 %
29.06.2017 06:46 16,9 C 17,8 C 16,1 C 94 % 1 lf 994,2 hPa 0,0 l/m 0 min 0 min 36 W/m 6,3 km/h (2 Bft) 97,87 %
29.06.2017 06:48 16,9 C 17,8 C 16,7 C 94 % 1 lf 994,2 hPa 0,0 l/m 0 min 0 min 40 W/m 6,3 km/h (2 Bft) 97,83 %
29.06.2017 06:50 16,9 C 17,8 C 16,7 C 94 % 1 lf 994,2 hPa 0,0 l/m 0 min 0 min 44 W/m 10,5 km/h (2 Bft) 95,74 %
29.06.2017 06:52 16,9 C 17,8 C 16,7 C 94 % 1 lf 994,1 hPa 0,0 l/m 0 min 0 min 49 W/m 8,4 km/h (2 Bft) 97,87 %
29.06.2017 06:54 17,0 C 17,8 C 16,7 C 94 % 1 lf 994,1 hPa 0,0 l/m 0 min 0 min 55 W/m 8,4 km/h (2 Bft) 97,87 %
29.06.2017 06:56 17,0 C 17,8 C 16,7 C 94 % 1 lf 994,2 hPa 0,0 l/m 0 min 0 min 58 W/m 8,4 km/h (2 Bft) 97,87 %
29.06.2017 06:58 17,0 C 17,8 C 16,7 C 94 % 1 lf 994,1 hPa 0,0 l/m 0 min 0 min 60 W/m 6,3 km/h (2 Bft) 100,00 %
29.06.2017 07:00 17,1 C 17,8 C 16,7 C 94 % 1 lf 994,2 hPa 0,0 l/m 0 min 0 min 60 W/m 12,6 km/h (3 Bft) 95,65 %
29.06.2017 07:02 17,1 C 17,8 C 16,7 C 93 % 1 lf 994,2 hPa 0,0 l/m 0 min 0 min 59 W/m 14,6 km/h (3 Bft) 97,87 %
29.06.2017 07:04 17,1 C 17,8 C 16,7 C 93 % 1 lf 994,2 hPa 0,0 l/m 0 min 0 min 58 W/m 12,6 km/h (3 Bft) 97,87 %
29.06.2017 07:06 17,1 C 17,8 C 16,7 C 93 % 1 lf 994,3 hPa 0,0 l/m 0 min 0 min 56 W/m 12,6 km/h (3 Bft) 100,00 %
29.06.2017 07:08 17,1 C 17,8 C 16,7 C 93 % 1 lf 994,3 hPa 0,0 l/m 0 min 0 min 55 W/m 4,2 km/h (1 Bft) 97,87 %
29.06.2017 07:10 17,1 C 17,8 C 16,7 C 93 % 1 lf 994,2 hPa 0,0 l/m 0 min 0 min 56 W/m 6,3 km/h (2 Bft) 97,87 %
29.06.2017 07:12 17,1 C 17,8 C 16,7 C 93 % 1 lf 994,3 hPa 0,0 l/m 0 min 0 min 59 W/m 10,5 km/h (2 Bft) 97,87 %
29.06.2017 07:14 17,2 C 17,8 C 16,7 C 93 % 1 lf 994,3 hPa 0,0 l/m 0 min 0 min 62 W/m 10,5 km/h (2 Bft) 95,74 %
29.06.2017 07:16 17,2 C 17,8 C 16,7 C 92 % 1 lf 994,3 hPa 0,0 l/m 0 min 0 min 67 W/m 12,6 km/h (3 Bft) 97,83 %
29.06.2017 07:18 17,2 C 17,8 C 16,7 C 92 % 1 lf 994,2 hPa 0,0 l/m 0 min 0 min 72 W/m 10,5 km/h (2 Bft) 97,87 %
29.06.2017 07:20 17,2 C 17,8 C 16,7 C 92 % 1 lf 994,3 hPa 0,0 l/m 0 min 0 min 79 W/m 14,6 km/h (3 Bft) 96,61 %
29.06.2017 07:22 17,2 C 18,3 C 16,7 C 92 % 1 lf 994,4 hPa 0,0 l/m 0 min 0 min 88 W/m 14,6 km/h (3 Bft) 97,14 %
29.06.2017 07:24 17,3 C 18,3 C 16,7 C 92 % 1 lf 994,4 hPa 0,0 l/m 0 min 0 min 101 W/m 12,6 km/h (3 Bft) 97,87 %
29.06.2017 07:26 17,3 C 18,3 C 16,7 C 92 % 1 lf 994,4 hPa 0,0 l/m 0 min 0 min 108 W/m 16,7 km/h (3 Bft) 97,87 %
29.06.2017 07:28 17,3 C 18,3 C 16,7 C 92 % 1 lf 994,4 hPa 0,0 l/m 0 min 0 min 122 W/m 14,6 km/h (3 Bft) 95,65 %
29.06.2017 07:30 17,3 C 18,3 C 16,7 C 91 % 0 lf 994,4 hPa 0,0 l/m 0 min 0 min 134 W/m 16,7 km/h (3 Bft) 95,74 %
29.06.2017 07:32 17,3 C 18,3 C 17,2 C 91 % 0 lf 994,4 hPa 0,0 l/m 2 min 0 min 144 W/m 20,9 km/h (4 Bft) 95,74 %
29.06.2017 07:34 17,4 C 18,3 C 17,2 C 91 % 0 lf 994,4 hPa 0,0 l/m 2 min 0 min 154 W/m 25,1 km/h (4 Bft) 91,49 %
29.06.2017 07:36 17,4 C 18,3 C 17,2 C 91 % 0 lf 994,5 hPa 0,0 l/m 2 min 0 min 146 W/m 18,8 km/h (3 Bft) 95,74 %
29.06.2017 07:38 17,4 C 18,9 C 17,2 C 90 % 0 lf 994,5 hPa 0,0 l/m 2 min 0 min 150 W/m 16,7 km/h (3 Bft) 93,48 %
29.06.2017 07:40 17,4 C 18,9 C 17,2 C 90 % 0 lf 994,5 hPa 0,0 l/m 2 min 0 min 170 W/m 16,7 km/h (3 Bft) 95,74 %
29.06.2017 07:42 17,5 C 18,9 C 17,2 C 90 % 0 lf 994,5 hPa 0,0 l/m 2 min 0 min 165 W/m 20,9 km/h (4 Bft) 95,74 %
29.06.2017 07:44 17,5 C 18,9 C 17,2 C 90 % 0 lf 994,5 hPa 0,0 l/m 2 min 0 min 171 W/m 23,0 km/h (4 Bft) 89,36 %
29.06.2017 07:46 17,6 C 18,9 C 17,2 C 90 % 0 lf 994,5 hPa 0,0 l/m 2 min 0 min 177 W/m 18,8 km/h (3 Bft) 93,62 %
29.06.2017 07:48 17,6 C 18,9 C 17,2 C 90 % 0 lf 994,5 hPa 0,0 l/m 2 min 0 min 185 W/m 29,3 km/h (5 Bft) 95,74 %
29.06.2017 07:50 17,6 C 18,9 C 17,8 C 89 % 0 lf 994,4 hPa 0,0 l/m 2 min 0 min 187 W/m 20,9 km/h (4 Bft) 95,65 %
29.06.2017 07:52 17,6 C 18,9 C 17,8 C 89 % 0 lf 994,5 hPa 0,0 l/m 2 min 0 min 200 W/m 23,0 km/h (4 Bft) 91,49 %
29.06.2017 07:54 17,6 C 18,9 C 17,8 C 88 % 0 lf 994,5 hPa 0,0 l/m 2 min 0 min 205 W/m 23,0 km/h (4 Bft) 93,62 %
29.06.2017 07:56 17,7 C 18,9 C 17,8 C 88 % 0 lf 994,5 hPa 0,0 l/m 2 min 0 min 211 W/m 16,7 km/h (3 Bft) 91,49 %
29.06.2017 07:58 17,7 C 18,9 C 17,8 C 88 % 0 lf 994,5 hPa 0,0 l/m 2 min 0 min 216 W/m 27,2 km/h (4 Bft) 93,62 %
29.06.2017 08:00 17,7 C 18,9 C 17,8 C 88 % 0 lf 994,5 hPa 0,0 l/m 2 min 0 min 213 W/m 18,8 km/h (3 Bft) 93,62 %
29.06.2017 08:02 17,8 C 18,9 C 17,8 C 88 % 0 lf 994,4 hPa 0,0 l/m 2 min 0 min 208 W/m 14,6 km/h (3 Bft) 94,34 %
29.06.2017 08:04 17,8 C 18,9 C 17,8 C 87 % 0 lf 994,6 hPa 0,0 l/m 2 min 0 min 202 W/m 23,0 km/h (4 Bft) 93,62 %
29.06.2017 08:06 17,8 C 19,4 C 17,8 C 87 % 0 lf 994,5 hPa 0,0 l/m 2 min 0 min 202 W/m 12,6 km/h (3 Bft) 94,00 %
29.06.2017 08:08 17,8 C 19,4 C 18,3 C 87 % 0 lf 994,6 hPa 0,0 l/m 2 min 0 min 196 W/m 12,6 km/h (3 Bft) 86,96 %
29.06.2017 08:10 17,8 C 19,4 C 18,3 C 87 % 0 lf 994,5 hPa 0,0 l/m 2 min 0 min 198 W/m 20,9 km/h (4 Bft) 93,62 %
29.06.2017 08:12 17,9 C 19,4 C 18,3 C 87 % 0 lf 994,5 hPa 0,0 l/m 2 min 0 min 197 W/m 29,3 km/h (5 Bft) 93,75 %
29.06.2017 08:14 17,9 C 19,4 C 18,3 C 87 % 0 lf 994,5 hPa 0,0 l/m 2 min 0 min 194 W/m 25,1 km/h (4 Bft) 93,62 %
29.06.2017 08:16 17,9 C 18,9 C 18,3 C 86 % 0 lf 994,4 hPa 0,0 l/m 0 min 0 min 190 W/m 20,9 km/h (4 Bft) 95,74 %
29.06.2017 08:18 17,9 C 18,9 C 18,3 C 86 % 0 lf 994,6 hPa 0,0 l/m 0 min 0 min 187 W/m 25,1 km/h (4 Bft) 97,87 %
29.06.2017 08:20 17,9 C 18,9 C 17,8 C 86 % 0 lf 994,6 hPa 0,0 l/m 0 min 0 min 175 W/m 31,4 km/h (5 Bft) 95,65 %
29.06.2017 08:22 17,9 C 18,9 C 17,8 C 86 % 0 lf 994,6 hPa 0,0 l/m 0 min 0 min 165 W/m 23,0 km/h (4 Bft) 95,74 %
29.06.2017 08:24 17,9 C 18,9 C 17,8 C 86 % 0 lf 994,6 hPa 0,0 l/m 0 min 0 min 155 W/m 25,1 km/h (4 Bft) 95,74 %
29.06.2017 08:26 17,9 C 18,9 C 17,8 C 86 % 0 lf 994,6 hPa 0,0 l/m 0 min 0 min 153 W/m 18,8 km/h (3 Bft) 91,49 %
29.06.2017 08:28 17,9 C 18,9 C 17,8 C 86 % 0 lf 994,6 hPa 0,0 l/m 0 min 0 min 157 W/m 25,1 km/h (4 Bft) 95,74 %
29.06.2017 08:30 18,0 C 18,9 C 17,8 C 86 % 0 lf 994,7 hPa 0,0 l/m 0 min 0 min 158 W/m 35,6 km/h (5 Bft) 93,62 %
29.06.2017 08:32 18,0 C 18,9 C 17,8 C 86 % 0 lf 994,7 hPa 0,0 l/m 0 min 0 min 159 W/m 25,1 km/h (4 Bft) 95,65 %
29.06.2017 08:34 18,0 C 18,9 C 18,3 C 86 % 0 lf 994,6 hPa 0,0 l/m 0 min 0 min 162 W/m 16,7 km/h (3 Bft) 95,74 %
29.06.2017 08:36 18,0 C 18,9 C 18,3 C 86 % 0 lf 994,6 hPa 0,0 l/m 0 min 0 min 167 W/m 18,8 km/h (3 Bft) 95,83 %
29.06.2017 08:38 18,0 C 18,9 C 17,8 C 86 % 0 lf 994,6 hPa 0,0 l/m 0 min 0 min 176 W/m 29,3 km/h (5 Bft) 95,74 %
29.06.2017 08:40 18,0 C 18,9 C 18,3 C 86 % 0 lf 994,7 hPa 0,0 l/m 0 min 0 min 182 W/m 20,9 km/h (4 Bft) 95,74 %
29.06.2017 08:42 18,0 C 18,9 C 18,3 C 86 % 0 lf 994,7 hPa 0,0 l/m 0 min 0 min 184 W/m 23,0 km/h (4 Bft) 93,62 %
29.06.2017 08:44 18,0 C 18,9 C 18,3 C 86 % 0 lf 994,8 hPa 0,0 l/m 0 min 0 min 182 W/m 16,7 km/h (3 Bft) 95,74 %
29.06.2017 08:46 18,0 C 18,9 C 18,3 C 86 % 0 lf 994,8 hPa 0,0 l/m 0 min 0 min 174 W/m 35,6 km/h (5 Bft) 93,48 %
29.06.2017 08:48 18,0 C 18,9 C 18,3 C 86 % 0 lf 994,8 hPa 0,0 l/m 0 min 0 min 176 W/m 29,3 km/h (5 Bft) 97,87 %
29.06.2017 08:50 18,0 C 18,9 C 18,3 C 86 % 0 lf 994,8 hPa 0,0 l/m 0 min 0 min 182 W/m 29,3 km/h (5 Bft) 97,87 %
29.06.2017 08:52 18,0 C 18,9 C 18,3 C 86 % 0 lf 994,8 hPa 0,0 l/m 0 min 0 min 183 W/m 23,0 km/h (4 Bft) 97,87 %
29.06.2017 08:54 18,0 C 18,9 C 18,3 C 86 % 0 lf 994,9 hPa 0,0 l/m 0 min 0 min 187 W/m 31,4 km/h (5 Bft) 95,74 %
29.06.2017 08:56 18,0 C 18,9 C 18,3 C 85 % 0 lf 994,9 hPa 0,0 l/m 0 min 0 min 181 W/m 27,2 km/h (4 Bft) 100,00 %
29.06.2017 08:58 18,0 C 18,9 C 18,3 C 85 % 0 lf 994,9 hPa 0,0 l/m 0 min 0 min 170 W/m 37,7 km/h (5 Bft) 100,00 %
29.06.2017 09:00 18,0 C 18,9 C 18,3 C 85 % 0 lf 995,0 hPa 0,0 l/m 0 min 0 min 155 W/m 37,7 km/h (5 Bft) 100,00 %
29.06.2017 09:02 17,9 C 18,9 C 17,8 C 85 % 0 lf 995,0 hPa 0,0 l/m 0 min 0 min 135 W/m 31,4 km/h (5 Bft) 100,00 %
29.06.2017 09:04 17,9 C 18,3 C 17,8 C 84 % 0 lf 995,0 hPa 0,0 l/m 0 min 0 min 148 W/m 35,6 km/h (5 Bft) 100,00 %
29.06.2017 09:06 17,9 C 18,9 C 17,8 C 84 % 0 lf 994,9 hPa 0,0 l/m 0 min 0 min 165 W/m 33,5 km/h (5 Bft) 97,14 %
29.06.2017 09:08 17,9 C 18,9 C 17,8 C 84 % 0 lf 995,0 hPa 0,0 l/m 0 min 0 min 166 W/m 37,7 km/h (5 Bft) 97,87 %
29.06.2017 09:10 17,9 C 18,9 C 18,3 C 84 % 0 lf 995,1 hPa 0,0 l/m 0 min 0 min 177 W/m 25,1 km/h (4 Bft) 100,00 %
29.06.2017 09:12 17,9 C 18,9 C 18,3 C 84 % 0 lf 995,1 hPa 0,0 l/m 0 min 0 min 174 W/m 27,2 km/h (4 Bft) 100,00 %
29.06.2017 09:14 17,9 C 18,9 C 18,3 C 84 % 0 lf 995,1 hPa 0,0 l/m 0 min 0 min 165 W/m 27,2 km/h (4 Bft) 100,00 %
29.06.2017 09:16 17,9 C 18,9 C 18,3 C 84 % 0 lf 995,0 hPa 0,0 l/m 0 min 0 min 165 W/m 23,0 km/h (4 Bft) 100,00 %
29.06.2017 09:18 17,9 C 18,9 C 18,3 C 84 % 0 lf 995,0 hPa 0,0 l/m 0 min 0 min 162 W/m 29,3 km/h (5 Bft) 100,00 %
29.06.2017 09:20 17,9 C 18,9 C 18,3 C 84 % 0 lf 995,0 hPa 0,0 l/m 0 min 0 min 166 W/m 31,4 km/h (5 Bft) 100,00 %
29.06.2017 09:22 17,9 C 18,9 C 18,3 C 85 % 0 lf 995,1 hPa 0,0 l/m 0 min 0 min 171 W/m 33,5 km/h (5 Bft) 100,00 %
29.06.2017 09:24 17,9 C 18,9 C 18,3 C 84 % 0 lf 995,1 hPa 0,0 l/m 0 min 0 min 170 W/m 29,3 km/h (5 Bft) 100,00 %
29.06.2017 09:26 17,9 C 18,9 C 18,3 C 85 % 0 lf 995,1 hPa 0,0 l/m 0 min 0 min 157 W/m 25,1 km/h (4 Bft) 97,87 %
29.06.2017 09:28 17,9 C 18,9 C 17,8 C 85 % 0 lf 995,2 hPa 0,0 l/m 0 min 0 min 153 W/m 23,0 km/h (4 Bft) 100,00 %
29.06.2017 09:30 17,9 C 18,9 C 18,3 C 85 % 0 lf 995,2 hPa 0,0 l/m 0 min 0 min 154 W/m 18,8 km/h (3 Bft) 100,00 %
29.06.2017 09:32 17,9 C 18,9 C 18,3 C 85 % 0 lf 995,2 hPa 0,0 l/m 0 min 0 min 152 W/m 18,8 km/h (3 Bft) 100,00 %
29.06.2017 09:34 18,0 C 18,9 C 18,3 C 85 % 0 lf 995,1 hPa 0,0 l/m 0 min 0 min 163 W/m 29,3 km/h (5 Bft) 100,00 %
29.06.2017 09:36 17,9 C 18,9 C 18,3 C 85 % 0 lf 995,2 hPa 0,0 l/m 0 min 0 min 165 W/m 23,0 km/h (4 Bft) 100,00 %
29.06.2017 09:38 18,0 C 18,9 C 18,3 C 85 % 0 lf 995,2 hPa 0,0 l/m 0 min 0 min 173 W/m 20,9 km/h (4 Bft) 100,00 %
29.06.2017 09:40 18,0 C 18,9 C 18,9 C 85 % 0 lf 995,2 hPa 0,0 l/m 0 min 0 min 185 W/m 20,9 km/h (4 Bft) 97,87 %
29.06.2017 09:42 18,0 C 18,9 C 18,9 C 85 % 0 lf 995,2 hPa 0,0 l/m 0 min 0 min 188 W/m 27,2 km/h (4 Bft) 97,87 %
29.06.2017 09:44 18,1 C 18,9 C 18,9 C 85 % 0 lf 995,3 hPa 0,0 l/m 0 min 0 min 192 W/m 25,1 km/h (4 Bft) 100,00 %
29.06.2017 09:46 18,1 C 18,9 C 18,9 C 84 % 0 lf 995,2 hPa 0,0 l/m 0 min 0 min 181 W/m 27,2 km/h (4 Bft) 100,00 %
29.06.2017 09:48 18,1 C 18,9 C 18,3 C 84 % 0 lf 995,3 hPa 0,0 l/m 0 min 0 min 161 W/m 29,3 km/h (5 Bft) 100,00 %
29.06.2017 09:50 18,1 C 18,9 C 18,3 C 84 % 0 lf 995,3 hPa 0,0 l/m 0 min 0 min 138 W/m 20,9 km/h (4 Bft) 100,00 %
29.06.2017 09:52 18,1 C 18,9 C 17,8 C 84 % 0 lf 995,3 hPa 0,0 l/m 0 min 0 min 111 W/m 27,2 km/h (4 Bft) 100,00 %
29.06.2017 09:54 18,1 C 18,9 C 17,8 C 84 % 0 lf 995,3 hPa 0,0 l/m 0 min 0 min 93 W/m 16,7 km/h (3 Bft) 100,00 %
29.06.2017 09:56 18,1 C 18,9 C 17,8 C 84 % 0 lf 995,3 hPa 0,0 l/m 0 min 0 min 93 W/m 18,8 km/h (3 Bft) 100,00 %
29.06.2017 09:58 18,1 C 18,9 C 17,8 C 84 % 0 lf 995,3 hPa 0,0 l/m 0 min 0 min 131 W/m 20,9 km/h (4 Bft) 100,00 %
29.06.2017 10:00 18,1 C 18,9 C 17,8 C 84 % 0 lf 995,4 hPa 0,0 l/m 0 min 0 min 162 W/m 18,8 km/h (3 Bft) 100,00 %
29.06.2017 10:02 18,1 C 18,9 C 17,8 C 84 % 0 lf 995,4 hPa 0,0 l/m 0 min 0 min 165 W/m 18,8 km/h (3 Bft) 97,87 %
29.06.2017 10:04 18,1 C 18,9 C 18,3 C 84 % 0 lf 995,4 hPa 0,0 l/m 0 min 0 min 170 W/m 12,6 km/h (3 Bft) 100,00 %
29.06.2017 10:06 18,1 C 19,4 C 18,9 C 85 % 0 lf 995,5 hPa 0,0 l/m 0 min 0 min 182 W/m 14,6 km/h (3 Bft) 100,00 %
29.06.2017 10:08 18,1 C 19,4 C 18,9 C 85 % 0 lf 995,5 hPa 0,0 l/m 0 min 0 min 197 W/m 12,6 km/h (3 Bft) 100,00 %
29.06.2017 10:10 18,2 C 19,4 C 18,9 C 85 % 0 lf 995,4 hPa 0,0 l/m 0 min 0 min 201 W/m 14,6 km/h (3 Bft) 100,00 %
29.06.2017 10:12 18,2 C 19,4 C 19,4 C 85 % 0 lf 995,5 hPa 0,0 l/m 0 min 0 min 198 W/m 12,6 km/h (3 Bft) 100,00 %
29.06.2017 10:14 18,2 C 20,0 C 19,4 C 84 % 0 lf 995,6 hPa 0,0 l/m 0 min 0 min 215 W/m 29,3 km/h (5 Bft) 100,00 %
29.06.2017 10:16 18,2 C 19,4 C 18,9 C 84 % 0 lf 995,5 hPa 0,0 l/m 0 min 0 min 209 W/m 25,1 km/h (4 Bft) 97,87 %
29.06.2017 10:18 18,2 C 19,4 C 18,9 C 83 % 0 lf 995,5 hPa 0,0 l/m 0 min 0 min 220 W/m 23,0 km/h (4 Bft) 97,87 %
29.06.2017 10:20 18,2 C 19,4 C 19,4 C 83 % 0 lf 995,6 hPa 0,0 l/m 0 min 0 min 233 W/m 31,4 km/h (5 Bft) 97,87 %
29.06.2017 10:22 18,2 C 20,0 C 19,4 C 83 % 0 lf 995,5 hPa 0,0 l/m 0 min 0 min 238 W/m 23,0 km/h (4 Bft) 93,48 %
29.06.2017 10:24 18,2 C 20,0 C 19,4 C 83 % 0 lf 995,5 hPa 0,0 l/m 0 min 0 min 245 W/m 25,1 km/h (4 Bft) 95,74 %
29.06.2017 10:26 18,3 C 20,0 C 19,4 C 82 % 0 lf 995,5 hPa 0,0 l/m 0 min 0 min 255 W/m 18,8 km/h (3 Bft) 95,74 %
29.06.2017 10:28 18,3 C 20,0 C 19,4 C 82 % 0 lf 995,5 hPa 0,0 l/m 0 min 0 min 257 W/m 18,8 km/h (3 Bft) 93,62 %
29.06.2017 10:30 18,3 C 20,6 C 20,0 C 82 % 0 lf 995,6 hPa 0,0 l/m 0 min 0 min 259 W/m 20,9 km/h (4 Bft) 95,74 %
29.06.2017 10:32 18,4 C 20,6 C 20,0 C 82 % 0 lf 995,6 hPa 0,0 l/m 0 min 0 min 232 W/m 23,0 km/h (4 Bft) 94,44 %
29.06.2017 10:34 18,4 C 20,6 C 19,4 C 82 % 0 lf 995,5 hPa 0,0 l/m 0 min 0 min 209 W/m 23,0 km/h (4 Bft) 93,62 %
29.06.2017 10:36 18,5 C 20,0 C 19,4 C 82 % 0 lf 995,6 hPa 0,0 l/m 0 min 0 min 197 W/m 20,9 km/h (4 Bft) 94,00 %
29.06.2017 10:38 18,5 C 20,0 C 19,4 C 82 % 0 lf 995,6 hPa 0,0 l/m 0 min 0 min 212 W/m 14,6 km/h (3 Bft) 93,62 %
29.06.2017 10:40 18,5 C 19,4 C 19,4 C 81 % 0 lf 995,7 hPa 0,0 l/m 0 min 0 min 214 W/m 31,4 km/h (5 Bft) 93,48 %
29.06.2017 10:42 18,5 C 20,0 C 19,4 C 80 % 0 lf 995,6 hPa 0,0 l/m 0 min 0 min 210 W/m 25,1 km/h (4 Bft) 93,62 %
29.06.2017 10:44 18,5 C 20,0 C 19,4 C 80 % 0 lf 995,6 hPa 0,0 l/m 0 min 0 min 212 W/m 29,3 km/h (5 Bft) 91,49 %
29.06.2017 10:46 18,5 C 20,0 C 19,4 C 79 % 0 lf 995,6 hPa 0,0 l/m 0 min 0 min 202 W/m 29,3 km/h (5 Bft) 93,62 %
29.06.2017 10:48 18,6 C 20,0 C 19,4 C 79 % 0 lf 995,6 hPa 0,0 l/m 0 min 0 min 203 W/m 27,2 km/h (4 Bft) 93,62 %
29.06.2017 10:50 18,6 C 19,4 C 19,4 C 79 % 0 lf 995,7 hPa 0,0 l/m 0 min 0 min 211 W/m 20,9 km/h (4 Bft) 93,62 %
29.06.2017 10:52 18,6 C 20,0 C 19,4 C 79 % 0 lf 995,7 hPa 0,0 l/m 0 min 0 min 205 W/m 27,2 km/h (4 Bft) 95,65 %
29.06.2017 10:54 18,6 C 20,0 C 19,4 C 79 % 0 lf 995,7 hPa 0,0 l/m 0 min 0 min 198 W/m 20,9 km/h (4 Bft) 91,49 %
29.06.2017 10:56 18,6 C 20,0 C 19,4 C 79 % 0 lf 995,7 hPa 0,0 l/m 0 min 0 min 187 W/m 20,9 km/h (4 Bft) 89,36 %
29.06.2017 10:58 18,6 C 20,0 C 18,9 C 79 % 0 lf 995,8 hPa 0,0 l/m 0 min 0 min 186 W/m 20,9 km/h (4 Bft) 93,62 %
29.06.2017 11:00 18,6 C 19,4 C 18,9 C 79 % 0 lf 995,8 hPa 0,0 l/m 0 min 0 min 181 W/m 29,3 km/h (5 Bft) 93,62 %
29.06.2017 11:02 18,6 C 19,4 C 18,9 C 79 % 0 lf 995,7 hPa 0,0 l/m 0 min 0 min 195 W/m 27,2 km/h (4 Bft) 93,75 %
29.06.2017 11:04 18,6 C 19,4 C 18,9 C 78 % 0 lf 995,7 hPa 0,0 l/m 0 min 0 min 229 W/m 27,2 km/h (4 Bft) 97,87 %
29.06.2017 11:06 18,6 C 20,0 C 19,4 C 79 % 0 lf 995,8 hPa 0,0 l/m 0 min 0 min 274 W/m 16,7 km/h (3 Bft) 91,30 %
29.06.2017 11:08 18,6 C 20,6 C 20,0 C 79 % 0 lf 995,8 hPa 0,0 l/m 0 min 0 min 298 W/m 23,0 km/h (4 Bft) 91,49 %
29.06.2017 11:10 18,7 C 20,6 C 20,6 C 79 % 0 lf 995,9 hPa 0,0 l/m 0 min 0 min 317 W/m 16,7 km/h (3 Bft) 91,49 %
29.06.2017 11:12 18,7 C 20,6 C 20,6 C 79 % 0 lf 995,9 hPa 0,0 l/m 0 min 0 min 323 W/m 20,9 km/h (4 Bft) 97,14 %
29.06.2017 11:14 18,8 C 21,1 C 21,1 C 79 % 0 lf 995,9 hPa 0,0 l/m 0 min 0 min 327 W/m 27,2 km/h (4 Bft) 95,74 %
29.06.2017 11:16 18,8 C 21,1 C 21,7 C 79 % 0 lf 995,9 hPa 0,0 l/m 0 min 0 min 345 W/m 18,8 km/h (3 Bft) 91,49 %
29.06.2017 11:18 18,9 C 21,1 C 21,7 C 79 % 0 lf 995,9 hPa 0,0 l/m 2 min 0 min 375 W/m 20,9 km/h (4 Bft) 93,62 %
29.06.2017 11:20 18,9 C 21,7 C 21,7 C 78 % 0 lf 995,9 hPa 0,0 l/m 2 min 0 min 401 W/m 25,1 km/h (4 Bft) 94,83 %
29.06.2017 11:22 19,0 C 21,7 C 21,7 C 78 % 0 lf 995,9 hPa 0,0 l/m 2 min 0 min 429 W/m 23,0 km/h (4 Bft) 94,29 %
29.06.2017 11:24 19,1 C 21,7 C 21,7 C 78 % 0 lf 995,9 hPa 0,0 l/m 2 min 0 min 428 W/m 18,8 km/h (3 Bft) 95,74 %
29.06.2017 11:26 19,2 C 22,2 C 22,2 C 78 % 0 lf 995,9 hPa 0,0 l/m 2 min 0 min 396 W/m 23,0 km/h (4 Bft) 93,62 %
29.06.2017 11:28 19,2 C 22,2 C 21,7 C 78 % 0 lf 996,0 hPa 0,0 l/m 0 min 0 min 368 W/m 27,2 km/h (4 Bft) 95,74 %
29.06.2017 11:30 19,3 C 21,7 C 21,7 C 77 % 0 lf 996,0 hPa 0,0 l/m 0 min 0 min 350 W/m 23,0 km/h (4 Bft) 95,74 %
29.06.2017 11:32 19,4 C 21,7 C 22,2 C 78 % 0 lf 995,9 hPa 0,0 l/m 0 min 0 min 338 W/m 18,8 km/h (3 Bft) 95,74 %
29.06.2017 11:34 19,4 C 21,7 C 21,7 C 77 % 0 lf 995,9 hPa 0,0 l/m 0 min 0 min 308 W/m 23,0 km/h (4 Bft) 97,83 %
29.06.2017 11:36 19,5 C 21,7 C 21,7 C 77 % 0 lf 996,0 hPa 0,0 l/m 0 min 0 min 252 W/m 20,9 km/h (4 Bft) 95,74 %
29.06.2017 11:38 19,5 C 21,7 C 21,1 C 77 % 0 lf 996,0 hPa 0,0 l/m 0 min 0 min 215 W/m 18,8 km/h (3 Bft) 95,74 %
29.06.2017 11:40 19,6 C 21,1 C 20,6 C 77 % 0 lf 996,0 hPa 0,0 l/m 0 min 0 min 175 W/m 18,8 km/h (3 Bft) 95,74 %
29.06.2017 11:42 19,6 C 20,6 C 20,6 C 77 % 0 lf 996,1 hPa 0,0 l/m 0 min 0 min 147 W/m 16,7 km/h (3 Bft) 95,74 %
29.06.2017 11:44 19,6 C 20,6 C 20,0 C 77 % 0 lf 996,1 hPa 0,0 l/m 0 min 0 min 140 W/m 16,7 km/h (3 Bft) 95,65 %
29.06.2017 11:46 19,6 C 20,0 C 20,0 C 77 % 0 lf 996,1 hPa 0,0 l/m 0 min 0 min 149 W/m 31,4 km/h (5 Bft) 97,87 %
29.06.2017 11:48 19,5 C 20,0 C 19,4 C 77 % 0 lf 996,1 hPa 0,0 l/m 0 min 0 min 149 W/m 25,1 km/h (4 Bft) 97,87 %
29.06.2017 11:50 19,5 C 20,0 C 19,4 C 77 % 0 lf 996,1 hPa 0,0 l/m 0 min 0 min 152 W/m 16,7 km/h (3 Bft) 97,87 %
29.06.2017 11:52 19,4 C 20,0 C 19,4 C 77 % 0 lf 996,1 hPa 0,0 l/m 0 min 0 min 172 W/m 23,0 km/h (4 Bft) 97,87 %
29.06.2017 11:54 19,4 C 20,6 C 19,4 C 77 % 0 lf 996,2 hPa 0,0 l/m 0 min 0 min 192 W/m 16,7 km/h (3 Bft) 97,87 %
29.06.2017 11:56 19,4 C 20,6 C 20,0 C 77 % 0 lf 996,2 hPa 0,0 l/m 0 min 0 min 206 W/m 12,6 km/h (3 Bft) 93,48 %
29.06.2017 11:58 19,4 C 20,6 C 20,0 C 77 % 0 lf 996,3 hPa 0,0 l/m 0 min 0 min 220 W/m 18,8 km/h (3 Bft) 97,87 %
29.06.2017 12:00 19,4 C 20,6 C 20,0 C 77 % 0 lf 996,2 hPa 0,0 l/m 0 min 0 min 240 W/m 20,9 km/h (4 Bft) 100,00 %
29.06.2017 12:02 19,3 C 20,6 C 20,0 C 77 % 0 lf 996,3 hPa 0,0 l/m 0 min 0 min 248 W/m 14,6 km/h (3 Bft) 98,15 %
29.06.2017 12:04 19,3 C 20,6 C 20,6 C 78 % 0 lf 996,2 hPa 0,0 l/m 0 min 0 min 236 W/m 23,0 km/h (4 Bft) 100,00 %
29.06.2017 12:06 19,4 C 20,6 C 20,6 C 78 % 0 lf 996,3 hPa 0,0 l/m 0 min 0 min 190 W/m 23,0 km/h (4 Bft) 94,00 %
29.06.2017 12:08 19,4 C 20,6 C 20,0 C 78 % 0 lf 996,3 hPa 0,0 l/m 0 min 0 min 153 W/m 18,8 km/h (3 Bft) 100,00 %
29.06.2017 12:10 19,3 C 20,0 C 19,4 C 78 % 0 lf 996,3 hPa 0,0 l/m 0 min 0 min 140 W/m 20,9 km/h (4 Bft) 100,00 %
29.06.2017 12:12 19,3 C 20,0 C 19,4 C 78 % 0 lf 996,3 hPa 0,0 l/m 0 min 0 min 137 W/m 16,7 km/h (3 Bft) 100,00 %
29.06.2017 12:14 19,3 C 20,0 C 19,4 C 78 % 0 lf 996,3 hPa 0,0 l/m 0 min 0 min 144 W/m 20,9 km/h (4 Bft) 100,00 %
29.06.2017 12:16 19,2 C 20,0 C 19,4 C 78 % 0 lf 996,3 hPa 0,0 l/m 0 min 0 min 160 W/m 16,7 km/h (3 Bft) 100,00 %
29.06.2017 12:18 19,2 C 20,0 C 19,4 C 78 % 0 lf 996,3 hPa 0,0 l/m 0 min 0 min 180 W/m 14,6 km/h (3 Bft) 97,87 %
29.06.2017 12:20 19,2 C 20,0 C 19,4 C 78 % 0 lf 996,3 hPa 0,0 l/m 0 min 0 min 216 W/m 14,6 km/h (3 Bft) 100,00 %
29.06.2017 12:22 19,2 C 20,6 C 20,0 C 79 % 0 lf 996,3 hPa 0,0 l/m 0 min 0 min 250 W/m 12,6 km/h (3 Bft) 97,87 %
29.06.2017 12:24 19,2 C 21,1 C 21,1 C 79 % 0 lf 996,3 hPa 0,0 l/m 0 min 0 min 277 W/m 12,6 km/h (3 Bft) 95,74 %
29.06.2017 12:26 19,3 C 21,1 C 21,1 C 79 % 0 lf 996,3 hPa 0,0 l/m 0 min 0 min 324 W/m 16,7 km/h (3 Bft) 100,00 %
29.06.2017 12:28 19,3 C 22,2 C 21,7 C 79 % 0 lf 996,3 hPa 0,0 l/m 2 min 0 min 416 W/m 23,0 km/h (4 Bft) 100,00 %
29.06.2017 12:30 19,4 C 23,3 C 22,8 C 79 % 0 lf 996,3 hPa 0,0 l/m 2 min 0 min 568 W/m 27,2 km/h (4 Bft) 100,00 %
29.06.2017 12:32 19,5 C 23,3 C 22,8 C 78 % 0 lf 996,3 hPa 0,0 l/m 2 min 0 min 610 W/m 25,1 km/h (4 Bft) 97,92 %
29.06.2017 12:34 19,6 C 24,4 C 23,9 C 77 % 0 lf 996,3 hPa 0,0 l/m 2 min 0 min 591 W/m 25,1 km/h (4 Bft) 97,87 %
29.06.2017 12:36 19,7 C 25,0 C 24,4 C 78 % 0 lf 996,3 hPa 0,0 l/m 2 min 0 min 561 W/m 18,8 km/h (3 Bft) 97,87 %
29.06.2017 12:38 19,9 C 25,6 C 24,4 C 78 % 0 lf 996,3 hPa 0,0 l/m 2 min 0 min 571 W/m 27,2 km/h (4 Bft) 95,74 %
29.06.2017 12:40 20,0 C 25,0 C 24,4 C 77 % 0 lf 996,3 hPa 0,0 l/m 2 min 0 min 535 W/m 18,8 km/h (3 Bft) 95,65 %
29.06.2017 12:42 20,2 C 25,0 C 24,4 C 76 % 0 lf 996,3 hPa 0,0 l/m 2 min 0 min 477 W/m 23,0 km/h (4 Bft) 97,87 %
29.06.2017 12:44 20,3 C 24,4 C 23,9 C 76 % 0 lf 996,3 hPa 0,0 l/m 2 min 0 min 514 W/m 27,2 km/h (4 Bft) 95,74 %
29.06.2017 12:46 20,3 C 25,0 C 24,4 C 76 % 0 lf 996,4 hPa 0,0 l/m 2 min 0 min 518 W/m 25,1 km/h (4 Bft) 93,62 %
29.06.2017 12:48 20,4 C 25,0 C 24,4 C 75 % 0 lf 996,4 hPa 0,0 l/m 2 min 0 min 511 W/m 23,0 km/h (4 Bft) 97,87 %
29.06.2017 12:50 20,5 C 23,9 C 24,4 C 74 % 0 lf 996,4 hPa 0,0 l/m 2 min 0 min 498 W/m 27,2 km/h (4 Bft) 97,87 %
29.06.2017 12:52 20,6 C 23,9 C 24,4 C 74 % 0 lf 996,4 hPa 0,0 l/m 2 min 0 min 507 W/m 16,7 km/h (3 Bft) 97,83 %
29.06.2017 12:54 20,7 C 24,4 C 24,4 C 75 % 0 lf 996,4 hPa 0,0 l/m 2 min 0 min 473 W/m 16,7 km/h (3 Bft) 93,62 %
29.06.2017 12:56 20,7 C 24,4 C 24,4 C 74 % 0 lf 996,4 hPa 0,0 l/m 2 min 0 min 455 W/m 20,9 km/h (4 Bft) 93,62 %
29.06.2017 12:58 20,8 C 24,4 C 24,4 C 73 % 0 lf 996,4 hPa 0,0 l/m 2 min 0 min 486 W/m 16,7 km/h (3 Bft) 91,49 %
29.06.2017 13:00 20,8 C 23,3 C 23,9 C 72 % 0 lf 996,4 hPa 0,0 l/m 2 min 0 min 488 W/m 20,9 km/h (4 Bft) 95,74 %
29.06.2017 13:02 20,8 C 23,3 C 23,9 C 72 % 0 lf 996,4 hPa 0,0 l/m 2 min 0 min 484 W/m 18,8 km/h (3 Bft) 94,29 %
29.06.2017 13:04 20,9 C 23,9 C 24,4 C 73 % 0 lf 996,4 hPa 0,0 l/m 2 min 0 min 465 W/m 18,8 km/h (3 Bft) 95,74 %
29.06.2017 13:07 21,0 C 23,9 C 24,4 C 71 % 0 lf 996,5 hPa 0,0 l/m 3 min 0 min 460 W/m 23,0 km/h (4 Bft) 94,87 %
29.06.2017 13:08 21,0 C 23,9 C 24,4 C 71 % 0 lf 996,5 hPa 0,0 l/m 1 min 0 min 469 W/m 20,9 km/h (4 Bft) 91,30 %
29.06.2017 13:10 21,0 C 23,9 C 24,4 C 71 % 0 lf 996,4 hPa 0,0 l/m 2 min 0 min 508 W/m 27,2 km/h (4 Bft) 97,87 %
29.06.2017 13:12 21,1 C 24,4 C 24,4 C 71 % 0 lf 996,5 hPa 0,0 l/m 2 min 0 min 518 W/m 25,1 km/h (4 Bft) 95,83 %
29.06.2017 13:14 21,1 C 25,6 C 25,0 C 71 % 0 lf 996,5 hPa 0,0 l/m 2 min 0 min 527 W/m 12,6 km/h (3 Bft) 89,13 %
29.06.2017 13:16 21,1 C 24,4 C 24,4 C 71 % 0 lf 996,5 hPa 0,0 l/m 2 min 0 min 540 W/m 25,1 km/h (4 Bft) 97,87 %
29.06.2017 13:20 21,2 C 25,0 C 24,4 C 71 % 0 lf 996,5 hPa 0,0 l/m 4 min 0 min 448 W/m 16,7 km/h (3 Bft) 100,00 %
29.06.2017 13:22 21,3 C 24,4 C 24,4 C 70 % 0 lf 996,5 hPa 0,0 l/m 2 min 0 min 461 W/m 14,6 km/h (3 Bft) 95,74 %
29.06.2017 13:24 21,3 C 25,0 C 24,4 C 71 % 0 lf 996,5 hPa 0,0 l/m 0 min 0 min 408 W/m 16,7 km/h (3 Bft) 97,96 %
29.06.2017 13:26 21,4 C 25,0 C 25,0 C 71 % 0 lf 996,6 hPa 0,0 l/m 2 min 0 min 470 W/m 23,0 km/h (4 Bft) 97,83 %
29.06.2017 13:28 21,4 C 25,0 C 25,0 C 70 % 0 lf 996,5 hPa 0,0 l/m 2 min 0 min 504 W/m 25,1 km/h (4 Bft) 97,87 %
29.06.2017 13:30 21,4 C 25,0 C 24,4 C 70 % 0 lf 996,5 hPa 0,0 l/m 2 min 0 min 558 W/m 16,7 km/h (3 Bft) 93,62 %
29.06.2017 13:32 21,5 C 25,0 C 25,0 C 70 % 0 lf 996,5 hPa 0,0 l/m 2 min 0 min 556 W/m 27,2 km/h (4 Bft) 97,87 %
29.06.2017 13:34 21,5 C 24,4 C 24,4 C 67 % 0 lf 996,5 hPa 0,0 l/m 2 min 0 min 577 W/m 27,2 km/h (4 Bft) 97,87 %
29.06.2017 13:36 21,5 C 24,4 C 24,4 C 67 % 0 lf 996,5 hPa 0,0 l/m 2 min 0 min 530 W/m 20,9 km/h (4 Bft) 97,14 %
29.06.2017 13:38 21,6 C 25,0 C 25,6 C 68 % 0 lf 996,6 hPa 0,0 l/m 2 min 0 min 512 W/m 18,8 km/h (3 Bft) 100,00 %
29.06.2017 13:40 21,7 C 25,6 C 25,6 C 69 % 0 lf 996,5 hPa 0,0 l/m 2 min 0 min 474 W/m 20,9 km/h (4 Bft) 100,00 %
29.06.2017 13:42 21,7 C 25,6 C 25,6 C 70 % 0 lf 996,6 hPa 0,0 l/m 2 min 0 min 470 W/m 16,7 km/h (3 Bft) 100,00 %
29.06.2017 13:44 21,8 C 25,6 C 25,0 C 69 % 0 lf 996,6 hPa 0,0 l/m 2 min 0 min 517 W/m 20,9 km/h (4 Bft) 97,87 %
29.06.2017 13:46 21,8 C 26,1 C 25,6 C 68 % 0 lf 996,6 hPa 0,0 l/m 2 min 0 min 524 W/m 14,6 km/h (3 Bft) 97,87 %
29.06.2017 13:48 21,9 C 26,1 C 25,6 C 68 % 0 lf 996,6 hPa 0,0 l/m 2 min 0 min 520 W/m 14,6 km/h (3 Bft) 100,00 %
29.06.2017 13:50 21,9 C 26,7 C 25,6 C 67 % 0 lf 996,6 hPa 0,0 l/m 2 min 0 min 570 W/m 16,7 km/h (3 Bft) 97,87 %
29.06.2017 13:52 22,0 C 26,7 C 25,6 C 66 % 0 lf 996,6 hPa 0,0 l/m 2 min 0 min 620 W/m 20,9 km/h (4 Bft) 97,87 %
29.06.2017 13:54 22,1 C 27,2 C 26,1 C 66 % 0 lf 996,6 hPa 0,0 l/m 2 min 0 min 662 W/m 10,5 km/h (2 Bft) 94,00 %
29.06.2017 13:56 22,2 C 27,2 C 26,1 C 66 % 0 lf 996,7 hPa 0,0 l/m 2 min 0 min 729 W/m 23,0 km/h (4 Bft) 97,87 %
29.06.2017 13:58 22,3 C 26,1 C 26,1 C 64 % 0 lf 996,6 hPa 0,0 l/m 2 min 0 min 725 W/m 27,2 km/h (4 Bft) 95,74 %
29.06.2017 14:00 22,3 C 27,2 C 26,7 C 65 % 0 lf 996,7 hPa 0,0 l/m 2 min 0 min 754 W/m 27,2 km/h (4 Bft) 97,83 %
29.06.2017 14:02 22,4 C 27,2 C 26,7 C 64 % 0 lf 996,7 hPa 0,0 l/m 2 min 0 min 773 W/m 18,8 km/h (3 Bft) 97,92 %
29.06.2017 14:04 22,5 C 26,7 C 26,7 C 64 % 0 lf 996,7 hPa 0,0 l/m 2 min 0 min 773 W/m 23,0 km/h (4 Bft) 95,74 %
29.06.2017 14:06 22,6 C 26,1 C 26,7 C 64 % 0 lf 996,7 hPa 0,0 l/m 2 min 0 min 786 W/m 33,5 km/h (5 Bft) 95,83 %
29.06.2017 14:08 22,6 C 27,8 C 27,2 C 65 % 0 lf 996,7 hPa 0,0 l/m 2 min 0 min 860 W/m 18,8 km/h (3 Bft) 97,87 %
29.06.2017 14:10 22,7 C 28,9 C 28,3 C 65 % 0 lf 996,7 hPa 0,0 l/m 2 min 0 min 873 W/m 18,8 km/h (3 Bft) 97,87 %
29.06.2017 14:12 22,9 C 28,9 C 28,9 C 65 % 0 lf 996,7 hPa 0,0 l/m 2 min 0 min 835 W/m 16,7 km/h (3 Bft) 93,62 %
29.06.2017 14:14 23,0 C 28,3 C 27,8 C 63 % 0 lf 996,7 hPa 0,0 l/m 2 min 0 min 583 W/m 16,7 km/h (3 Bft) 94,29 %
29.06.2017 14:16 23,1 C 28,9 C 28,3 C 63 % 0 lf 996,7 hPa 0,0 l/m 2 min 0 min 515 W/m 16,7 km/h (3 Bft) 95,74 %
29.06.2017 14:18 23,2 C 28,9 C 28,9 C 62 % 0 lf 996,6 hPa 0,0 l/m 2 min 0 min 909 W/m 20,9 km/h (4 Bft) 97,83 %
29.06.2017 14:20 23,3 C 28,9 C 29,4 C 62 % 0 lf 996,6 hPa 0,0 l/m 2 min 0 min 870 W/m 20,9 km/h (4 Bft) 97,87 %
29.06.2017 14:22 23,3 C 28,9 C 30,0 C 62 % 0 lf 996,6 hPa 0,0 l/m 2 min 0 min 855 W/m 27,2 km/h (4 Bft) 91,49 %
29.06.2017 14:24 23,4 C 28,9 C 30,6 C 61 % 0 lf 996,7 hPa 0,0 l/m 2 min 0 min 805 W/m 23,0 km/h (4 Bft) 93,62 %
29.06.2017 14:26 23,4 C 28,3 C 29,4 C 62 % 0 lf 996,6 hPa 0,0 l/m 2 min 0 min 778 W/m 31,4 km/h (5 Bft) 93,62 %
29.06.2017 14:28 23,4 C 26,7 C 28,3 C 60 % 0 lf 996,7 hPa 0,0 l/m 2 min 0 min 782 W/m 29,3 km/h (5 Bft) 95,65 %
29.06.2017 14:30 23,3 C 27,2 C 28,9 C 62 % 0 lf 996,7 hPa 0,0 l/m 2 min 0 min 822 W/m 27,2 km/h (4 Bft) 95,74 %
29.06.2017 14:32 23,3 C 27,2 C 29,4 C 62 % 0 lf 996,7 hPa 0,0 l/m 2 min 0 min 849 W/m 31,4 km/h (5 Bft) 94,64 %
29.06.2017 14:34 23,4 C 27,8 C 30,0 C 62 % 0 lf 996,7 hPa 0,0 l/m 2 min 0 min 779 W/m 27,2 km/h (4 Bft) 95,74 %
29.06.2017 14:36 23,4 C 27,8 C 30,6 C 62 % 0 lf 996,7 hPa 0,0 l/m 2 min 0 min 802 W/m 20,9 km/h (4 Bft) 96,00 %
29.06.2017 14:38 23,5 C 27,8 C 30,0 C 61 % 0 lf 996,7 hPa 0,0 l/m 2 min 0 min 886 W/m 25,1 km/h (4 Bft) 93,48 %
29.06.2017 14:40 23,5 C 29,4 C 31,7 C 62 % 0 lf 996,7 hPa 0,0 l/m 2 min 0 min 948 W/m 18,8 km/h (3 Bft) 94,29 %
29.06.2017 14:42 23,6 C 27,8 C 30,0 C 61 % 0 lf 996,6 hPa 0,0 l/m 2 min 0 min 882 W/m 27,2 km/h (4 Bft) 93,62 %
29.06.2017 14:44 23,6 C 27,8 C 28,9 C 61 % 0 lf 996,7 hPa 0,0 l/m 2 min 0 min 446 W/m 23,0 km/h (4 Bft) 95,74 %
29.06.2017 14:46 23,6 C 27,8 C 30,0 C 61 % 0 lf 996,7 hPa 0,0 l/m 2 min 0 min 636 W/m 18,8 km/h (3 Bft) 93,62 %
29.06.2017 14:48 23,7 C 28,9 C 30,6 C 63 % 0 lf 996,7 hPa 0,0 l/m 2 min 0 min 842 W/m 20,9 km/h (4 Bft) 93,62 %
29.06.2017 14:50 23,7 C 29,4 C 31,1 C 62 % 0 lf 996,7 hPa 0,0 l/m 2 min 0 min 817 W/m 16,7 km/h (3 Bft) 94,83 %
29.06.2017 14:52 23,8 C 29,4 C 31,1 C 62 % 0 lf 996,7 hPa 0,0 l/m 2 min 0 min 825 W/m 14,6 km/h (3 Bft) 94,29 %
29.06.2017 14:54 23,9 C 30,0 C 30,6 C 62 % 0 lf 996,6 hPa 0,0 l/m 2 min 0 min 802 W/m 14,6 km/h (3 Bft) 93,62 %
29.06.2017 14:56 23,9 C 29,4 C 30,6 C 61 % 0 lf 996,6 hPa 0,0 l/m 2 min 0 min 850 W/m 25,1 km/h (4 Bft) 95,74 %
29.06.2017 14:58 24,0 C 29,4 C 30,6 C 60 % 0 lf 996,6 hPa 0,0 l/m 2 min 0 min 816 W/m 25,1 km/h (4 Bft) 94,44 %
29.06.2017 15:00 24,1 C 28,9 C 30,6 C 60 % 0 lf 996,7 hPa 0,0 l/m 2 min 0 min 727 W/m 27,2 km/h (4 Bft) 95,74 %
29.06.2017 15:02 24,1 C 28,3 C 30,0 C 60 % 0 lf 996,7 hPa 0,0 l/m 2 min 0 min 721 W/m 23,0 km/h (4 Bft) 93,88 %
29.06.2017 15:04 24,1 C 28,3 C 30,0 C 59 % 0 lf 996,7 hPa 0,0 l/m 2 min 0 min 596 W/m 23,0 km/h (4 Bft) 95,74 %
29.06.2017 15:06 24,1 C 28,3 C 30,0 C 59 % 0 lf 996,7 hPa 0,0 l/m 2 min 0 min 604 W/m 23,0 km/h (4 Bft) 95,92 %
29.06.2017 15:08 24,1 C 27,2 C 30,0 C 60 % 0 lf 996,7 hPa 0,0 l/m 2 min 0 min 678 W/m 29,3 km/h (5 Bft) 95,74 %
29.06.2017 15:10 24,0 C 27,8 C 30,6 C 60 % 0 lf 996,7 hPa 0,0 l/m 2 min 0 min 737 W/m 14,6 km/h (3 Bft) 93,62 %
29.06.2017 15:12 24,0 C 28,3 C 30,6 C 60 % 0 lf 996,7 hPa 0,0 l/m 2 min 0 min 715 W/m 18,8 km/h (3 Bft) 95,65 %
29.06.2017 15:14 24,1 C 26,7 C 29,4 C 60 % 0 lf 996,7 hPa 0,0 l/m 2 min 0 min 698 W/m 29,3 km/h (5 Bft) 97,87 %
29.06.2017 15:16 23,9 C 26,1 C 27,8 C 60 % 0 lf 996,7 hPa 0,0 l/m 2 min 0 min 408 W/m 29,3 km/h (5 Bft) 97,87 %
29.06.2017 15:18 23,9 C 26,1 C 27,2 C 61 % 0 lf 996,7 hPa 0,0 l/m 0 min 0 min 377 W/m 18,8 km/h (3 Bft) 100,00 %
29.06.2017 15:20 23,9 C 26,7 C 27,8 C 61 % 0 lf 996,7 hPa 0,0 l/m 2 min 0 min 448 W/m 18,8 km/h (3 Bft) 100,00 %
29.06.2017 15:22 23,9 C 27,2 C 28,9 C 62 % 0 lf 996,8 hPa 0,0 l/m 2 min 0 min 634 W/m 27,2 km/h (4 Bft) 100,00 %
29.06.2017 15:24 23,9 C 26,7 C 28,3 C 61 % 0 lf 996,7 hPa 0,0 l/m 2 min 0 min 614 W/m 16,7 km/h (3 Bft) 100,00 %
29.06.2017 15:26 23,9 C 26,7 C 28,9 C 61 % 0 lf 996,8 hPa 0,0 l/m 2 min 0 min 614 W/m 23,0 km/h (4 Bft) 97,87 %
29.06.2017 15:28 23,9 C 27,2 C 28,9 C 60 % 0 lf 996,8 hPa 0,0 l/m 2 min 0 min 617 W/m 29,3 km/h (5 Bft) 100,00 %
29.06.2017 15:30 23,8 C 26,7 C 28,9 C 60 % 0 lf 996,9 hPa 0,0 l/m 2 min 0 min 609 W/m 18,8 km/h (3 Bft) 93,62 %
29.06.2017 15:32 23,8 C 27,2 C 28,9 C 61 % 0 lf 996,8 hPa 0,0 l/m 2 min 0 min 621 W/m 16,7 km/h (3 Bft) 94,29 %
29.06.2017 15:34 23,9 C 27,2 C 28,9 C 61 % 0 lf 997,0 hPa 0,0 l/m 2 min 0 min 617 W/m 18,8 km/h (3 Bft) 97,87 %
29.06.2017 15:36 23,9 C 27,8 C 29,4 C 61 % 0 lf 996,9 hPa 0,0 l/m 2 min 0 min 637 W/m 16,7 km/h (3 Bft) 97,67 %
29.06.2017 15:38 23,9 C 26,7 C 28,9 C 60 % 0 lf 996,9 hPa 0,0 l/m 2 min 0 min 658 W/m 29,3 km/h (5 Bft) 98,36 %
29.06.2017 15:40 23,9 C 26,7 C 28,9 C 60 % 0 lf 996,9 hPa 0,0 l/m 2 min 0 min 649 W/m 16,7 km/h (3 Bft) 95,74 %
29.06.2017 15:42 23,9 C 26,7 C 28,3 C 60 % 0 lf 996,9 hPa 0,0 l/m 2 min 0 min 577 W/m 20,9 km/h (4 Bft) 97,87 %
29.06.2017 15:44 23,9 C 26,7 C 28,9 C 60 % 0 lf 996,8 hPa 0,0 l/m 2 min 0 min 546 W/m 23,0 km/h (4 Bft) 97,83 %
29.06.2017 15:46 23,9 C 27,2 C 29,4 C 60 % 0 lf 996,9 hPa 0,0 l/m 2 min 0 min 664 W/m 16,7 km/h (3 Bft) 95,74 %
29.06.2017 15:48 23,9 C 27,2 C 30,0 C 60 % 0 lf 996,9 hPa 0,0 l/m 2 min 0 min 639 W/m 25,1 km/h (4 Bft) 97,87 %
29.06.2017 15:50 23,9 C 27,2 C 28,9 C 60 % 0 lf 996,8 hPa 0,0 l/m 2 min 0 min 528 W/m 23,0 km/h (4 Bft) 97,87 %
29.06.2017 15:52 24,0 C 27,2 C 29,4 C 60 % 0 lf 996,9 hPa 0,0 l/m 2 min 0 min 448 W/m 14,6 km/h (3 Bft) 95,74 %
29.06.2017 15:54 24,0 C 27,2 C 30,0 C 61 % 0 lf 996,9 hPa 0,0 l/m 2 min 0 min 597 W/m 14,6 km/h (3 Bft) 97,87 %
29.06.2017 15:56 24,1 C 27,8 C 30,0 C 60 % 0 lf 996,8 hPa 0,0 l/m 2 min 0 min 632 W/m 8,4 km/h (2 Bft) 97,83 %
29.06.2017 15:58 24,2 C 28,3 C 30,6 C 60 % 0 lf 996,9 hPa 0,0 l/m 2 min 0 min 617 W/m 20,9 km/h (4 Bft) 95,74 %
29.06.2017 16:00 24,2 C 27,8 C 30,0 C 59 % 0 lf 996,9 hPa 0,0 l/m 2 min 0 min 593 W/m 29,3 km/h (5 Bft) 95,74 %
29.06.2017 16:02 24,3 C 27,8 C 29,4 C 59 % 0 lf 996,9 hPa 0,0 l/m 2 min 0 min 550 W/m 23,0 km/h (4 Bft) 93,75 %
29.06.2017 16:04 24,3 C 27,2 C 29,4 C 59 % 0 lf 996,9 hPa 0,0 l/m 2 min 0 min 520 W/m 18,8 km/h (3 Bft) 93,62 %
29.06.2017 16:06 24,3 C 27,2 C 28,9 C 59 % 0 lf 996,8 hPa 0,0 l/m 2 min 0 min 466 W/m 20,9 km/h (4 Bft) 97,87 %
29.06.2017 16:08 24,4 C 27,2 C 27,8 C 60 % 0 lf 996,9 hPa 0,0 l/m 2 min 0 min 396 W/m 23,0 km/h (4 Bft) 100,00 %
29.06.2017 16:10 24,3 C 26,7 C 27,2 C 59 % 0 lf 996,9 hPa 0,0 l/m 2 min 0 min 428 W/m 25,1 km/h (4 Bft) 100,00 %
29.06.2017 16:12 24,3 C 26,7 C 27,8 C 59 % 0 lf 997,0 hPa 0,0 l/m 2 min 0 min 427 W/m 16,7 km/h (3 Bft) 100,00 %
29.06.2017 16:14 24,3 C 26,7 C 27,2 C 59 % 0 lf 997,0 hPa 0,0 l/m 0 min 0 min 353 W/m 14,6 km/h (3 Bft) 97,87 %
29.06.2017 16:16 24,3 C 26,1 C 26,7 C 59 % 0 lf 996,9 hPa 0,0 l/m 2 min 0 min 367 W/m 16,7 km/h (3 Bft) 100,00 %
29.06.2017 16:18 24,2 C 25,6 C 26,7 C 58 % 0 lf 997,0 hPa 0,0 l/m 2 min 0 min 382 W/m 16,7 km/h (3 Bft) 100,00 %
29.06.2017 16:20 24,2 C 25,6 C 26,7 C 58 % 0 lf 996,9 hPa 0,0 l/m 2 min 0 min 397 W/m 20,9 km/h (4 Bft) 100,00 %
29.06.2017 16:22 24,1 C 26,1 C 27,2 C 59 % 0 lf 996,9 hPa 0,0 l/m 2 min 0 min 430 W/m 12,6 km/h (3 Bft) 100,00 %
29.06.2017 16:24 24,1 C 26,1 C 26,7 C 60 % 0 lf 996,9 hPa 0,0 l/m 2 min 0 min 440 W/m 10,5 km/h (2 Bft) 100,00 %
29.06.2017 16:26 24,1 C 26,1 C 27,2 C 60 % 0 lf 997,0 hPa 0,0 l/m 2 min 0 min 442 W/m 18,8 km/h (3 Bft) 100,00 %
29.06.2017 16:28 24,1 C 26,1 C 27,8 C 60 % 0 lf 997,0 hPa 0,0 l/m 2 min 0 min 482 W/m 14,6 km/h (3 Bft) 100,00 %
29.06.2017 16:30 24,1 C 26,7 C 27,8 C 59 % 0 lf 997,0 hPa 0,0 l/m 2 min 0 min 438 W/m 10,5 km/h (2 Bft) 97,87 %
29.06.2017 16:32 24,1 C 26,7 C 27,2 C 60 % 0 lf 997,0 hPa 0,0 l/m 2 min 0 min 359 W/m 20,9 km/h (4 Bft) 100,00 %
29.06.2017 16:34 24,0 C 26,1 C 26,7 C 59 % 0 lf 997,0 hPa 0,0 l/m 2 min 0 min 352 W/m 12,6 km/h (3 Bft) 97,83 %
29.06.2017 16:36 24,0 C 25,6 C 26,7 C 59 % 0 lf 997,0 hPa 0,0 l/m 2 min 0 min 406 W/m 12,6 km/h (3 Bft) 100,00 %
29.06.2017 16:38 23,9 C 26,1 C 27,8 C 59 % 0 lf 996,9 hPa 0,0 l/m 2 min 0 min 547 W/m 12,6 km/h (3 Bft) 95,74 %
29.06.2017 16:40 23,9 C 26,1 C 28,3 C 60 % 0 lf 996,9 hPa 0,0 l/m 2 min 0 min 548 W/m 12,6 km/h (3 Bft) 100,00 %
29.06.2017 16:42 23,9 C 25,6 C 27,8 C 60 % 0 lf 996,9 hPa 0,0 l/m 2 min 0 min 525 W/m 18,8 km/h (3 Bft) 97,87 %
29.06.2017 16:44 23,9 C 26,1 C 28,3 C 61 % 0 lf 997,0 hPa 0,0 l/m 2 min 0 min 554 W/m 18,8 km/h (3 Bft) 97,83 %
29.06.2017 16:46 23,9 C 26,1 C 27,8 C 59 % 0 lf 997,0 hPa 0,0 l/m 2 min 0 min 413 W/m 20,9 km/h (4 Bft) 97,87 %
29.06.2017 16:48 24,0 C 26,1 C 27,2 C 59 % 0 lf 997,0 hPa 0,0 l/m 2 min 0 min 348 W/m 16,7 km/h (3 Bft) 97,87 %
29.06.2017 16:50 24,0 C 26,1 C 27,8 C 61 % 0 lf 997,0 hPa 0,0 l/m 2 min 0 min 392 W/m 12,6 km/h (3 Bft) 97,87 %
29.06.2017 16:52 24,0 C 26,1 C 27,8 C 60 % 0 lf 997,0 hPa 0,0 l/m 2 min 0 min 545 W/m 14,6 km/h (3 Bft) 93,62 %
29.06.2017 16:54 24,0 C 26,7 C 28,3 C 60 % 0 lf 996,9 hPa 0,0 l/m 2 min 0 min 516 W/m 16,7 km/h (3 Bft) 95,74 %
29.06.2017 16:56 24,1 C 26,1 C 28,3 C 61 % 0 lf 997,0 hPa 0,0 l/m 2 min 0 min 457 W/m 20,9 km/h (4 Bft) 93,48 %
29.06.2017 16:58 24,1 C 26,1 C 27,8 C 60 % 0 lf 997,0 hPa 0,0 l/m 2 min 0 min 378 W/m 14,6 km/h (3 Bft) 97,87 %
29.06.2017 17:00 24,1 C 25,6 C 26,7 C 59 % 0 lf 997,0 hPa 0,0 l/m 2 min 0 min 360 W/m 14,6 km/h (3 Bft) 97,87 %
29.06.2017 17:02 24,0 C 25,6 C 26,1 C 59 % 0 lf 997,0 hPa 0,0 l/m 2 min 0 min 332 W/m 14,6 km/h (3 Bft) 93,75 %
29.06.2017 17:04 24,0 C 26,1 C 26,1 C 60 % 0 lf 996,9 hPa 0,0 l/m 0 min 0 min 315 W/m 8,4 km/h (2 Bft) 95,74 %
29.06.2017 17:06 24,0 C 26,1 C 26,1 C 61 % 0 lf 996,9 hPa 0,0 l/m 2 min 0 min 320 W/m 12,6 km/h (3 Bft) 93,88 %
29.06.2017 17:08 23,9 C 25,6 C 26,1 C 60 % 0 lf 997,0 hPa 0,0 l/m 2 min 0 min 353 W/m 16,7 km/h (3 Bft) 95,74 %
29.06.2017 17:10 23,9 C 25,6 C 26,1 C 60 % 0 lf 997,0 hPa 0,0 l/m 2 min 0 min 356 W/m 20,9 km/h (4 Bft) 95,65 %
29.06.2017 17:12 23,9 C 25,6 C 26,1 C 60 % 0 lf 997,0 hPa 0,0 l/m 2 min 0 min 359 W/m 18,8 km/h (3 Bft) 93,62 %
29.06.2017 17:14 23,8 C 25,6 C 26,1 C 60 % 0 lf 997,0 hPa 0,0 l/m 2 min 0 min 348 W/m 10,5 km/h (2 Bft) 95,74 %
29.06.2017 17:16 23,8 C 25,6 C 25,6 C 61 % 0 lf 997,0 hPa 0,0 l/m 2 min 0 min 319 W/m 10,5 km/h (2 Bft) 91,49 %
29.06.2017 17:18 23,8 C 25,6 C 25,6 C 60 % 0 lf 997,0 hPa 0,0 l/m 0 min 0 min 291 W/m 10,5 km/h (2 Bft) 93,62 %
29.06.2017 17:20 23,8 C 25,0 C 25,6 C 61 % 0 lf 997,0 hPa 0,0 l/m 0 min 0 min 273 W/m 10,5 km/h (2 Bft) 95,74 %
29.06.2017 17:22 23,8 C 25,0 C 25,6 C 61 % 0 lf 997,1 hPa 0,0 l/m 0 min 0 min 273 W/m 10,5 km/h (2 Bft) 93,48 %
29.06.2017 17:24 23,8 C 25,6 C 25,6 C 61 % 0 lf 997,2 hPa 0,0 l/m 0 min 0 min 271 W/m 8,4 km/h (2 Bft) 97,87 %
29.06.2017 17:26 23,7 C 25,0 C 25,0 C 61 % 0 lf 997,1 hPa 0,0 l/m 0 min 0 min 268 W/m 18,8 km/h (3 Bft) 97,87 %
29.06.2017 17:28 23,7 C 25,0 C 25,0 C 60 % 0 lf 997,1 hPa 0,0 l/m 0 min 0 min 273 W/m 16,7 km/h (3 Bft) 95,74 %
29.06.2017 17:30 23,7 C 25,0 C 25,0 C 61 % 0 lf 997,2 hPa 0,0 l/m 0 min 0 min 279 W/m 16,7 km/h (3 Bft) 97,87 %
29.06.2017 17:32 23,7 C 25,0 C 25,0 C 61 % 0 lf 997,1 hPa 0,0 l/m 0 min 0 min 285 W/m 18,8 km/h (3 Bft) 97,14 %
29.06.2017 17:34 23,7 C 25,6 C 25,0 C 60 % 0 lf 997,1 hPa 0,0 l/m 0 min 0 min 287 W/m 14,6 km/h (3 Bft) 97,87 %
29.06.2017 17:36 23,6 C 25,0 C 25,0 C 60 % 0 lf 997,2 hPa 0,0 l/m 0 min 0 min 283 W/m 10,5 km/h (2 Bft) 96,30 %
29.06.2017 17:38 23,6 C 25,0 C 25,0 C 60 % 0 lf 997,2 hPa 0,0 l/m 2 min 0 min 287 W/m 10,5 km/h (2 Bft) 95,74 %
29.06.2017 17:40 23,6 C 25,0 C 25,0 C 60 % 0 lf 997,1 hPa 0,0 l/m 2 min 0 min 288 W/m 18,8 km/h (3 Bft) 93,62 %
29.06.2017 17:42 23,5 C 25,0 C 25,0 C 61 % 0 lf 997,1 hPa 0,0 l/m 2 min 0 min 293 W/m 18,8 km/h (3 Bft) 95,74 %
29.06.2017 17:44 23,4 C 24,4 C 25,0 C 60 % 0 lf 997,1 hPa 0,0 l/m 2 min 0 min 299 W/m 12,6 km/h (3 Bft) 93,48 %
29.06.2017 17:46 23,4 C 25,0 C 25,0 C 60 % 0 lf 997,1 hPa 0,0 l/m 2 min 0 min 300 W/m 16,7 km/h (3 Bft) 91,49 %
29.06.2017 17:48 23,4 C 25,0 C 25,0 C 60 % 0 lf 997,2 hPa 0,0 l/m 2 min 0 min 305 W/m 16,7 km/h (3 Bft) 93,62 %
29.06.2017 17:50 23,4 C 25,6 C 25,0 C 60 % 0 lf 997,2 hPa 0,0 l/m 2 min 0 min 299 W/m 8,4 km/h (2 Bft) 93,62 %
29.06.2017 17:52 23,4 C 25,0 C 25,0 C 60 % 0 lf 997,1 hPa 0,0 l/m 2 min 0 min 308 W/m 18,8 km/h (3 Bft) 97,83 %
29.06.2017 17:54 23,4 C 25,0 C 25,0 C 60 % 0 lf 997,1 hPa 0,0 l/m 2 min 0 min 305 W/m 12,6 km/h (3 Bft) 97,87 %
29.06.2017 17:56 23,4 C 25,0 C 25,0 C 61 % 0 lf 997,1 hPa 0,0 l/m 2 min 0 min 282 W/m 12,6 km/h (3 Bft) 97,83 %
29.06.2017 17:58 23,4 C 25,0 C 25,0 C 61 % 0 lf 997,0 hPa 0,0 l/m 2 min 0 min 282 W/m 10,5 km/h (2 Bft) 97,87 %
29.06.2017 18:00 23,4 C 24,4 C 24,4 C 60 % 0 lf 997,0 hPa 0,0 l/m 0 min 0 min 244 W/m 18,8 km/h (3 Bft) 93,62 %
29.06.2017 18:02 23,4 C 24,4 C 24,4 C 60 % 0 lf 997,0 hPa 0,0 l/m 0 min 0 min 225 W/m 16,7 km/h (3 Bft) 91,67 %
29.06.2017 18:04 23,3 C 24,4 C 24,4 C 60 % 0 lf 997,1 hPa 0,0 l/m 0 min 0 min 222 W/m 16,7 km/h (3 Bft) 93,62 %
29.06.2017 18:06 23,3 C 24,4 C 24,4 C 60 % 0 lf 997,1 hPa 0,0 l/m 0 min 0 min 237 W/m 20,9 km/h (4 Bft) 93,88 %
29.06.2017 18:10 23,3 C 24,4 C 24,4 C 60 % 0 lf 997,2 hPa 0,0 l/m 4 min 0 min 257 W/m 16,7 km/h (3 Bft) 94,68 %
29.06.2017 18:12 23,3 C 24,4 C 24,4 C 61 % 0 lf 997,2 hPa 0,0 l/m 2 min 0 min 318 W/m 8,4 km/h (2 Bft) 95,74 %
29.06.2017 18:14 23,3 C 25,0 C 24,4 C 61 % 0 lf 997,2 hPa 0,0 l/m 2 min 0 min 327 W/m 10,5 km/h (2 Bft) 95,74 %
29.06.2017 18:16 23,3 C 25,0 C 24,4 C 62 % 0 lf 997,2 hPa 0,0 l/m 2 min 0 min 309 W/m 16,7 km/h (3 Bft) 93,62 %
29.06.2017 18:18 23,3 C 25,0 C 24,4 C 61 % 0 lf 997,2 hPa 0,0 l/m 2 min 0 min 258 W/m 12,6 km/h (3 Bft) 95,74 %
29.06.2017 18:20 23,3 C 24,4 C 24,4 C 61 % 0 lf 997,2 hPa 0,0 l/m 0 min 0 min 232 W/m 10,5 km/h (2 Bft) 91,30 %
29.06.2017 18:22 23,3 C 24,4 C 24,4 C 61 % 0 lf 997,1 hPa 0,0 l/m 0 min 0 min 226 W/m 14,6 km/h (3 Bft) 95,74 %
29.06.2017 18:24 23,3 C 23,9 C 23,9 C 61 % 0 lf 997,1 hPa 0,0 l/m 0 min 0 min 225 W/m 20,9 km/h (4 Bft) 95,74 %
29.06.2017 18:26 23,2 C 23,9 C 23,9 C 61 % 0 lf 997,1 hPa 0,0 l/m 0 min 0 min 213 W/m 16,7 km/h (3 Bft) 93,62 %
29.06.2017 18:28 23,2 C 23,9 C 23,9 C 61 % 0 lf 997,1 hPa 0,0 l/m 0 min 0 min 203 W/m 6,3 km/h (2 Bft) 95,74 %
29.06.2017 18:30 23,2 C 23,9 C 23,9 C 61 % 0 lf 997,2 hPa 0,0 l/m 0 min 0 min 199 W/m 18,8 km/h (3 Bft) 95,74 %
29.06.2017 18:32 23,2 C 23,9 C 23,9 C 62 % 0 lf 997,2 hPa 0,0 l/m 0 min 0 min 199 W/m 10,5 km/h (2 Bft) 89,13 %
29.06.2017 18:34 23,2 C 23,9 C 23,9 C 62 % 0 lf 997,1 hPa 0,0 l/m 0 min 0 min 217 W/m 14,6 km/h (3 Bft) 93,62 %
29.06.2017 18:36 23,2 C 24,4 C 23,9 C 62 % 0 lf 997,1 hPa 0,0 l/m 2 min 0 min 244 W/m 8,4 km/h (2 Bft) 100,00 %
29.06.2017 18:38 23,1 C 24,4 C 23,9 C 62 % 0 lf 997,1 hPa 0,0 l/m 2 min 0 min 271 W/m 12,6 km/h (3 Bft) 95,74 %
29.06.2017 18:40 23,1 C 24,4 C 23,9 C 62 % 0 lf 997,1 hPa 0,0 l/m 2 min 0 min 259 W/m 12,6 km/h (3 Bft) 97,87 %
29.06.2017 18:42 23,1 C 24,4 C 23,9 C 63 % 0 lf 997,2 hPa 0,0 l/m 2 min 0 min 232 W/m 12,6 km/h (3 Bft) 97,87 %
29.06.2017 18:44 23,1 C 23,9 C 23,9 C 62 % 0 lf 997,2 hPa 0,0 l/m 2 min 0 min 234 W/m 20,9 km/h (4 Bft) 100,00 %
29.06.2017 18:46 23,1 C 23,9 C 23,9 C 62 % 0 lf 997,3 hPa 0,0 l/m 2 min 0 min 280 W/m 16,7 km/h (3 Bft) 100,00 %
29.06.2017 18:48 23,1 C 23,9 C 23,9 C 61 % 0 lf 997,3 hPa 0,0 l/m 2 min 0 min 285 W/m 18,8 km/h (3 Bft) 97,87 %
29.06.2017 18:50 23,1 C 23,9 C 23,3 C 62 % 0 lf 997,3 hPa 0,0 l/m 2 min 0 min 281 W/m 8,4 km/h (2 Bft) 100,00 %
29.06.2017 18:52 23,1 C 24,4 C 23,3 C 62 % 0 lf 997,4 hPa 0,0 l/m 2 min 0 min 279 W/m 14,6 km/h (3 Bft) 97,87 %
29.06.2017 18:54 23,1 C 23,9 C 23,3 C 62 % 0 lf 997,3 hPa 0,0 l/m 2 min 0 min 278 W/m 14,6 km/h (3 Bft) 93,62 %
29.06.2017 18:56 23,0 C 23,9 C 23,3 C 62 % 0 lf 997,4 hPa 0,0 l/m 2 min 0 min 209 W/m 16,7 km/h (3 Bft) 95,74 %
29.06.2017 18:58 23,0 C 23,9 C 23,3 C 62 % 0 lf 997,4 hPa 0,0 l/m 0 min 0 min 192 W/m 18,8 km/h (3 Bft) 97,83 %
29.06.2017 19:00 22,9 C 23,9 C 23,3 C 62 % 0 lf 997,5 hPa 0,0 l/m 0 min 0 min 176 W/m 12,6 km/h (3 Bft) 95,74 %
29.06.2017 19:02 22,9 C 23,9 C 23,3 C 61 % 0 lf 997,5 hPa 0,0 l/m 0 min 0 min 161 W/m 16,7 km/h (3 Bft) 98,15 %
29.06.2017 19:04 22,9 C 23,3 C 23,3 C 61 % 0 lf 997,5 hPa 0,0 l/m 0 min 0 min 148 W/m 18,8 km/h (3 Bft) 97,87 %
29.06.2017 19:06 22,9 C 23,3 C 22,8 C 60 % 0 lf 997,6 hPa 0,0 l/m 0 min 0 min 144 W/m 16,7 km/h (3 Bft) 95,65 %
29.06.2017 19:08 22,9 C 23,3 C 22,8 C 60 % 0 lf 997,6 hPa 0,0 l/m 0 min 0 min 141 W/m 16,7 km/h (3 Bft) 97,87 %
29.06.2017 19:10 22,8 C 23,3 C 22,8 C 60 % 0 lf 997,6 hPa 0,0 l/m 0 min 0 min 159 W/m 16,7 km/h (3 Bft) 97,87 %
29.06.2017 19:12 22,8 C 23,3 C 22,8 C 61 % 0 lf 997,6 hPa 0,0 l/m 0 min 0 min 147 W/m 10,5 km/h (2 Bft) 97,87 %
29.06.2017 19:14 22,8 C 22,8 C 22,8 C 61 % 0 lf 997,6 hPa 0,0 l/m 0 min 0 min 134 W/m 14,6 km/h (3 Bft) 97,87 %
29.06.2017 19:16 22,7 C 22,8 C 22,2 C 61 % 0 lf 997,6 hPa 0,0 l/m 0 min 0 min 127 W/m 16,7 km/h (3 Bft) 95,65 %
29.06.2017 19:18 22,6 C 22,8 C 22,2 C 60 % 0 lf 997,6 hPa 0,0 l/m 0 min 0 min 139 W/m 14,6 km/h (3 Bft) 97,87 %
29.06.2017 19:20 22,6 C 22,8 C 22,2 C 60 % 0 lf 997,7 hPa 0,0 l/m 0 min 0 min 136 W/m 12,6 km/h (3 Bft) 97,87 %
29.06.2017 19:22 22,6 C 22,8 C 22,2 C 61 % 0 lf 997,7 hPa 0,0 l/m 0 min 0 min 142 W/m 8,4 km/h (2 Bft) 95,74 %
29.06.2017 19:24 22,6 C 22,8 C 22,2 C 61 % 0 lf 997,7 hPa 0,0 l/m 2 min 0 min 171 W/m 12,6 km/h (3 Bft) 97,87 %
29.06.2017 19:26 22,6 C 22,8 C 22,2 C 61 % 0 lf 997,7 hPa 0,0 l/m 2 min 0 min 170 W/m 8,4 km/h (2 Bft) 100,00 %
29.06.2017 19:28 22,5 C 23,3 C 22,2 C 62 % 0 lf 997,7 hPa 0,0 l/m 2 min 0 min 171 W/m 14,6 km/h (3 Bft) 97,83 %
29.06.2017 19:30 22,5 C 22,8 C 22,2 C 61 % 0 lf 997,7 hPa 0,0 l/m 2 min 0 min 180 W/m 10,5 km/h (2 Bft) 100,00 %
29.06.2017 19:32 22,5 C 22,8 C 22,2 C 62 % 0 lf 997,6 hPa 0,0 l/m 2 min 0 min 189 W/m 6,3 km/h (2 Bft) 100,00 %
29.06.2017 19:34 22,4 C 23,3 C 22,2 C 62 % 0 lf 997,7 hPa 0,0 l/m 2 min 0 min 182 W/m 10,5 km/h (2 Bft) 100,00 %
29.06.2017 19:36 22,4 C 22,8 C 22,2 C 61 % 0 lf 997,7 hPa 0,0 l/m 2 min 0 min 168 W/m 12,6 km/h (3 Bft) 100,00 %
29.06.2017 19:38 22,4 C 23,3 C 22,2 C 61 % 0 lf 997,7 hPa 0,0 l/m 2 min 0 min 156 W/m 10,5 km/h (2 Bft) 100,00 %
29.06.2017 19:40 22,4 C 23,3 C 22,2 C 61 % 0 lf 997,6 hPa 0,0 l/m 2 min 0 min 150 W/m 14,6 km/h (3 Bft) 97,83 %
29.06.2017 19:42 22,4 C 22,8 C 22,2 C 62 % 0 lf 997,7 hPa 0,0 l/m 2 min 0 min 158 W/m 12,6 km/h (3 Bft) 100,00 %
29.06.2017 19:44 22,4 C 23,3 C 22,2 C 61 % 0 lf 997,7 hPa 0,0 l/m 2 min 0 min 150 W/m 10,5 km/h (2 Bft) 100,00 %
29.06.2017 19:46 22,4 C 22,8 C 22,2 C 62 % 0 lf 997,7 hPa 0,0 l/m 2 min 0 min 146 W/m 12,6 km/h (3 Bft) 100,00 %
29.06.2017 19:48 22,4 C 22,8 C 21,7 C 61 % 0 lf 997,7 hPa 0,0 l/m 2 min 0 min 140 W/m 6,3 km/h (2 Bft) 100,00 %
29.06.2017 19:50 22,4 C 22,8 C 21,7 C 62 % 0 lf 997,7 hPa 0,0 l/m 2 min 0 min 133 W/m 8,4 km/h (2 Bft) 97,87 %
29.06.2017 19:52 22,4 C 22,8 C 21,7 C 61 % 0 lf 997,7 hPa 0,0 l/m 0 min 0 min 127 W/m 16,7 km/h (3 Bft) 100,00 %
29.06.2017 19:54 22,3 C 22,8 C 21,7 C 61 % 0 lf 997,7 hPa 0,0 l/m 0 min 0 min 123 W/m 12,6 km/h (3 Bft) 100,00 %
29.06.2017 19:56 22,3 C 22,2 C 21,7 C 61 % 0 lf 997,7 hPa 0,0 l/m 0 min 0 min 120 W/m 16,7 km/h (3 Bft) 97,87 %
29.06.2017 19:58 22,3 C 22,2 C 21,7 C 61 % 0 lf 997,7 hPa 0,0 l/m 0 min 0 min 118 W/m 14,6 km/h (3 Bft) 100,00 %
29.06.2017 20:00 22,2 C 22,2 C 21,7 C 61 % 0 lf 997,7 hPa 0,0 l/m 0 min 0 min 117 W/m 16,7 km/h (3 Bft) 100,00 %
29.06.2017 20:02 22,2 C 22,2 C 21,1 C 61 % 0 lf 997,8 hPa 0,0 l/m 0 min 0 min 114 W/m 8,4 km/h (2 Bft) 95,92 %
29.06.2017 20:04 22,2 C 22,2 C 21,1 C 61 % 0 lf 997,8 hPa 0,0 l/m 0 min 0 min 109 W/m 12,6 km/h (3 Bft) 97,87 %
29.06.2017 20:06 22,2 C 22,2 C 21,1 C 61 % 0 lf 997,8 hPa 0,0 l/m 0 min 0 min 106 W/m 8,4 km/h (2 Bft) 100,00 %
29.06.2017 20:08 22,1 C 22,2 C 21,1 C 61 % 0 lf 997,8 hPa 0,0 l/m 0 min 0 min 103 W/m 10,5 km/h (2 Bft) 97,87 %
29.06.2017 20:10 22,1 C 22,2 C 21,1 C 61 % 0 lf 997,8 hPa 0,0 l/m 0 min 0 min 99 W/m 4,2 km/h (1 Bft) 100,00 %
29.06.2017 20:12 22,1 C 22,2 C 21,1 C 62 % 0 lf 997,9 hPa 0,0 l/m 0 min 0 min 96 W/m 12,6 km/h (3 Bft) 100,00 %
29.06.2017 20:14 22,1 C 22,2 C 21,1 C 61 % 0 lf 997,9 hPa 0,0 l/m 0 min 0 min 92 W/m 10,5 km/h (2 Bft) 100,00 %
29.06.2017 20:16 22,0 C 21,7 C 20,6 C 62 % 0 lf 997,9 hPa 0,0 l/m 0 min 0 min 86 W/m 8,4 km/h (2 Bft) 97,87 %
29.06.2017 20:18 21,9 C 21,7 C 20,6 C 62 % 0 lf 997,9 hPa 0,0 l/m 0 min 0 min 83 W/m 12,6 km/h (3 Bft) 97,83 %
29.06.2017 20:20 21,9 C 21,7 C 20,6 C 61 % 0 lf 997,9 hPa 0,0 l/m 0 min 0 min 78 W/m 14,6 km/h (3 Bft) 95,74 %
29.06.2017 20:22 21,8 C 21,7 C 20,6 C 61 % 0 lf 997,9 hPa 0,0 l/m 0 min 0 min 72 W/m 16,7 km/h (3 Bft) 97,87 %
29.06.2017 20:24 21,8 C 21,7 C 20,6 C 61 % 0 lf 998,0 hPa 0,0 l/m 0 min 0 min 68 W/m 14,6 km/h (3 Bft) 97,87 %
29.06.2017 20:26 21,8 C 21,1 C 20,6 C 61 % 0 lf 998,0 hPa 0,0 l/m 0 min 0 min 65 W/m 16,7 km/h (3 Bft) 97,87 %
29.06.2017 20:28 21,7 C 21,1 C 20,6 C 61 % 0 lf 998,0 hPa 0,0 l/m 0 min 0 min 64 W/m 14,6 km/h (3 Bft) 100,00 %
29.06.2017 20:30 21,6 C 21,1 C 20,6 C 61 % 0 lf 998,0 hPa 0,0 l/m 0 min 0 min 63 W/m 14,6 km/h (3 Bft) 97,83 %
29.06.2017 20:32 21,6 C 21,1 C 20,0 C 61 % 0 lf 998,0 hPa 0,0 l/m 0 min 0 min 62 W/m 6,3 km/h (2 Bft) 97,14 %
29.06.2017 20:34 21,6 C 21,1 C 20,0 C 61 % 0 lf 998,0 hPa 0,0 l/m 0 min 0 min 62 W/m 16,7 km/h (3 Bft) 95,74 %
29.06.2017 20:36 21,5 C 21,1 C 20,0 C 61 % 0 lf 998,0 hPa 0,0 l/m 0 min 0 min 62 W/m 10,5 km/h (2 Bft) 95,74 %
29.06.2017 20:38 21,4 C 21,1 C 20,0 C 61 % 0 lf 998,1 hPa 0,0 l/m 0 min 0 min 62 W/m 8,4 km/h (2 Bft) 91,49 %
29.06.2017 20:40 21,4 C 21,1 C 20,0 C 62 % 0 lf 998,1 hPa 0,0 l/m 0 min 0 min 60 W/m 6,3 km/h (2 Bft) 95,74 %
29.06.2017 20:42 21,3 C 21,1 C 20,0 C 62 % 0 lf 998,1 hPa 0,0 l/m 0 min 0 min 55 W/m 8,4 km/h (2 Bft) 91,49 %
29.06.2017 20:44 21,3 C 21,1 C 20,0 C 62 % 0 lf 998,1 hPa 0,0 l/m 0 min 0 min 52 W/m 8,4 km/h (2 Bft) 93,48 %
29.06.2017 20:46 21,3 C 20,6 C 20,0 C 62 % 0 lf 998,1 hPa 0,0 l/m 0 min 0 min 46 W/m 10,5 km/h (2 Bft) 95,74 %
29.06.2017 20:48 21,3 C 20,6 C 19,4 C 62 % 0 lf 998,1 hPa 0,0 l/m 0 min 0 min 43 W/m 8,4 km/h (2 Bft) 93,62 %
29.06.2017 20:50 21,2 C 20,6 C 19,4 C 62 % 0 lf 998,1 hPa 0,0 l/m 0 min 0 min 40 W/m 10,5 km/h (2 Bft) 93,62 %
29.06.2017 20:52 21,2 C 20,6 C 19,4 C 62 % 0 lf 998,1 hPa 0,0 l/m 0 min 0 min 39 W/m 10,5 km/h (2 Bft) 93,62 %
29.06.2017 20:54 21,1 C 20,6 C 19,4 C 62 % 0 lf 998,2 hPa 0,0 l/m 0 min 0 min 38 W/m 10,5 km/h (2 Bft) 89,36 %
29.06.2017 20:56 21,1 C 20,6 C 19,4 C 62 % 0 lf 998,2 hPa 0,0 l/m 0 min 0 min 36 W/m 6,3 km/h (2 Bft) 91,30 %
29.06.2017 20:58 21,1 C 20,6 C 19,4 C 63 % 0 lf 998,2 hPa 0,0 l/m 0 min 0 min 34 W/m 4,2 km/h (1 Bft) 89,36 %
29.06.2017 21:00 21,1 C 20,6 C 19,4 C 63 % 0 lf 998,3 hPa 0,0 l/m 0 min 0 min 33 W/m 6,3 km/h (2 Bft) 91,49 %
29.06.2017 21:02 21,0 C 20,0 C 19,4 C 63 % 0 lf 998,3 hPa 0,0 l/m 0 min 0 min 31 W/m 6,3 km/h (2 Bft) 92,45 %
29.06.2017 21:04 21,0 C 20,0 C 18,9 C 63 % 0 lf 998,4 hPa 0,0 l/m 0 min 0 min 30 W/m 4,2 km/h (1 Bft) 89,36 %
29.06.2017 21:06 21,0 C 20,0 C 18,9 C 63 % 0 lf 998,4 hPa 0,0 l/m 0 min 0 min 28 W/m 6,3 km/h (2 Bft) 91,49 %
29.06.2017 21:08 21,0 C 20,0 C 18,9 C 64 % 0 lf 998,5 hPa 0,0 l/m 0 min 0 min 28 W/m 4,2 km/h (1 Bft) 89,36 %
29.06.2017 21:10 20,9 C 20,0 C 18,9 C 64 % 0 lf 998,5 hPa 0,0 l/m 0 min 0 min 26 W/m 4,2 km/h (1 Bft) 87,23 %
29.06.2017 21:12 20,9 C 20,0 C 18,3 C 64 % 0 lf 998,5 hPa 0,0 l/m 0 min 0 min 25 W/m 4,2 km/h (1 Bft) 93,62 %
29.06.2017 21:14 20,9 C 20,0 C 18,3 C 64 % 0 lf 998,5 hPa 0,0 l/m 0 min 0 min 23 W/m 4,2 km/h (1 Bft) 93,48 %
29.06.2017 21:16 20,9 C 20,0 C 18,3 C 64 % 0 lf 998,6 hPa 0,0 l/m 0 min 0 min 21 W/m 6,3 km/h (2 Bft) 93,62 %
29.06.2017 21:18 20,8 C 20,0 C 18,3 C 64 % 0 lf 998,6 hPa 0,0 l/m 0 min 0 min 21 W/m 4,2 km/h (1 Bft) 93,62 %
29.06.2017 21:20 20,8 C 19,4 C 18,3 C 64 % 0 lf 998,6 hPa 0,0 l/m 0 min 0 min 19 W/m 8,4 km/h (2 Bft) 93,62 %
29.06.2017 21:22 20,7 C 19,4 C 18,3 C 64 % 0 lf 998,6 hPa 0,0 l/m 0 min 0 min 19 W/m 6,3 km/h (2 Bft) 93,62 %
29.06.2017 21:24 20,7 C 19,4 C 18,3 C 64 % 0 lf 998,6 hPa 0,0 l/m 0 min 0 min 18 W/m 6,3 km/h (2 Bft) 93,62 %
29.06.2017 21:26 20,7 C 19,4 C 18,3 C 64 % 0 lf 998,7 hPa 0,0 l/m 0 min 0 min 18 W/m 4,2 km/h (1 Bft) 95,65 %
29.06.2017 21:28 20,6 C 19,4 C 17,8 C 65 % 0 lf 998,7 hPa 0,0 l/m 0 min 0 min 15 W/m 6,3 km/h (2 Bft) 95,74 %
29.06.2017 21:30 20,6 C 19,4 C 17,8 C 65 % 0 lf 998,7 hPa 0,0 l/m 0 min 0 min 13 W/m 4,2 km/h (1 Bft) 95,74 %
29.06.2017 21:32 20,5 C 18,9 C 17,8 C 65 % 0 lf 998,7 hPa 0,0 l/m 0 min 0 min 11 W/m 4,2 km/h (1 Bft) 97,92 %
29.06.2017 21:34 20,5 C 18,9 C 17,8 C 65 % 0 lf 998,7 hPa 0,0 l/m 0 min 0 min 11 W/m 6,3 km/h (2 Bft) 97,87 %
29.06.2017 21:36 20,4 C 18,9 C 17,8 C 65 % 0 lf 998,7 hPa 0,0 l/m 0 min 0 min 9 W/m 4,2 km/h (1 Bft) 95,74 %
29.06.2017 21:38 20,4 C 18,9 C 17,8 C 65 % 0 lf 998,7 hPa 0,0 l/m 0 min 0 min 9 W/m 6,3 km/h (2 Bft) 97,87 %
29.06.2017 21:40 20,3 C 18,9 C 17,8 C 65 % 0 lf 998,7 hPa 0,0 l/m 0 min 0 min 7 W/m 6,3 km/h (2 Bft) 97,87 %
29.06.2017 21:42 20,3 C 18,9 C 17,8 C 65 % 0 lf 998,8 hPa 0,0 l/m 0 min 0 min 7 W/m 4,2 km/h (1 Bft) 97,96 %
29.06.2017 21:44 20,2 C 18,9 C 17,8 C 66 % 0 lf 998,8 hPa 0,0 l/m 0 min 0 min 7 W/m 6,3 km/h (2 Bft) 95,74 %
29.06.2017 21:46 20,2 C 18,9 C 17,2 C 66 % 0 lf 998,8 hPa 0,0 l/m 0 min 0 min 7 W/m 6,3 km/h (2 Bft) 95,74 %
29.06.2017 21:48 20,1 C 18,9 C 17,2 C 66 % 0 lf 998,9 hPa 0,0 l/m 0 min 0 min 5 W/m 2,1 km/h (1 Bft) 97,83 %
29.06.2017 21:50 20,1 C 18,9 C 17,2 C 66 % 0 lf 998,8 hPa 0,0 l/m 0 min 0 min 5 W/m 4,2 km/h (1 Bft) 100,00 %
29.06.2017 21:52 20,1 C 18,3 C 17,2 C 66 % 0 lf 998,9 hPa 0,0 l/m 0 min 0 min 5 W/m 2,1 km/h (1 Bft) 100,00 %
29.06.2017 21:54 20,0 C 18,3 C 17,2 C 66 % 0 lf 998,9 hPa 0,0 l/m 0 min 0 min 5 W/m 4,2 km/h (1 Bft) 100,00 %
29.06.2017 21:56 19,9 C 18,3 C 16,7 C 66 % 0 lf 998,9 hPa 0,0 l/m 0 min 0 min 5 W/m 4,2 km/h (1 Bft) 100,00 %
29.06.2017 21:58 19,9 C 18,3 C 16,7 C 66 % 0 lf 998,9 hPa 0,0 l/m 0 min 0 min 5 W/m 4,2 km/h (1 Bft) 100,00 %
29.06.2017 22:00 19,9 C 18,3 C 16,7 C 66 % 0 lf 999,0 hPa 0,0 l/m 0 min 0 min 5 W/m 4,2 km/h (1 Bft) 97,83 %
29.06.2017 22:02 19,8 C 18,3 C 16,7 C 67 % 0 lf 999,0 hPa 0,0 l/m 0 min 0 min 2 W/m 6,3 km/h (2 Bft) 97,87 %
29.06.2017 22:04 19,8 C 18,3 C 16,7 C 67 % 0 lf 999,0 hPa 0,0 l/m 0 min 0 min 0 W/m 2,1 km/h (1 Bft) 100,00 %
29.06.2017 22:06 19,8 C 17,8 C 16,7 C 67 % 0 lf 999,0 hPa 0,0 l/m 0 min 0 min 0 W/m 2,1 km/h (1 Bft) 97,92 %
29.06.2017 22:08 19,7 C 17,8 C 16,7 C 67 % 0 lf 999,1 hPa 0,0 l/m 0 min 0 min 0 W/m 2,1 km/h (1 Bft) 100,00 %
29.06.2017 22:10 19,7 C 17,8 C 16,7 C 67 % 0 lf 999,1 hPa 0,0 l/m 0 min 0 min 0 W/m 0,0 km/h (0 Bft) 100,00 %
29.06.2017 22:12 19,6 C 17,8 C 16,1 C 67 % 0 lf 999,1 hPa 0,0 l/m 0 min 0 min 0 W/m 0,0 km/h (0 Bft) 100,00 %
29.06.2017 22:14 19,6 C 17,8 C 16,1 C 67 % 0 lf 999,1 hPa 0,0 l/m 0 min 0 min 0 W/m 2,1 km/h (1 Bft) 97,83 %
29.06.2017 22:16 19,6 C 17,8 C 16,1 C 67 % 0 lf 999,1 hPa 0,0 l/m 0 min 0 min 0 W/m 4,2 km/h (1 Bft) 97,87 %
29.06.2017 22:18 19,5 C 17,8 C 16,1 C 68 % 0 lf 999,1 hPa 0,0 l/m 0 min 0 min 0 W/m 2,1 km/h (1 Bft) 100,00 %
29.06.2017 22:20 19,4 C 17,2 C 16,1 C 68 % 0 lf 999,2 hPa 0,0 l/m 0 min 0 min 0 W/m 0,0 km/h (0 Bft) 100,00 %
29.06.2017 22:22 19,4 C 17,2 C 16,1 C 68 % 0 lf 999,2 hPa 0,0 l/m 0 min 0 min 0 W/m 4,2 km/h (1 Bft) 97,87 %
29.06.2017 22:24 19,4 C 17,2 C 16,1 C 68 % 0 lf 999,3 hPa 0,0 l/m 0 min 0 min 0 W/m 4,2 km/h (1 Bft) 100,00 %
29.06.2017 22:26 19,3 C 17,2 C 16,1 C 68 % 0 lf 999,3 hPa 0,0 l/m 0 min 0 min 0 W/m 4,2 km/h (1 Bft) 100,00 %
29.06.2017 22:28 19,3 C 17,2 C 16,1 C 68 % 0 lf 999,4 hPa 0,0 l/m 0 min 0 min 0 W/m 4,2 km/h (1 Bft) 100,00 %
29.06.2017 22:30 19,2 C 17,2 C 16,1 C 68 % 0 lf 999,4 hPa 0,0 l/m 0 min 0 min 0 W/m 4,2 km/h (1 Bft) 100,00 %
29.06.2017 22:32 19,2 C 17,2 C 15,6 C 69 % 0 lf 999,5 hPa 0,0 l/m 0 min 0 min 0 W/m 4,2 km/h (1 Bft) 100,00 %
29.06.2017 22:34 19,1 C 17,2 C 15,6 C 69 % 0 lf 999,5 hPa 0,0 l/m 0 min 0 min 0 W/m 4,2 km/h (1 Bft) 100,00 %
29.06.2017 22:36 19,1 C 17,2 C 15,6 C 69 % 0 lf 999,5 hPa 0,0 l/m 0 min 0 min 0 W/m 4,2 km/h (1 Bft) 97,87 %
29.06.2017 22:38 19,0 C 17,2 C 15,6 C 69 % 0 lf 999,6 hPa 0,0 l/m 0 min 0 min 0 W/m 4,2 km/h (1 Bft) 100,00 %
29.06.2017 22:40 19,0 C 17,2 C 15,6 C 69 % 0 lf 999,5 hPa 0,0 l/m 0 min 0 min 0 W/m 4,2 km/h (1 Bft) 100,00 %
29.06.2017 22:42 18,9 C 17,2 C 15,6 C 70 % 0 lf 999,5 hPa 0,0 l/m 0 min 0 min 0 W/m 4,2 km/h (1 Bft) 100,00 %
29.06.2017 22:44 18,9 C 17,2 C 15,6 C 70 % 0 lf 999,6 hPa 0,0 l/m 0 min 0 min 0 W/m 4,2 km/h (1 Bft) 97,87 %
29.06.2017 22:46 18,8 C 17,2 C 15,6 C 70 % 0 lf 999,5 hPa 0,0 l/m 0 min 0 min 0 W/m 2,1 km/h (1 Bft) 100,00 %
29.06.2017 22:48 18,8 C 17,2 C 15,6 C 70 % 0 lf 999,5 hPa 0,0 l/m 0 min 0 min 0 W/m 2,1 km/h (1 Bft) 100,00 %
29.06.2017 22:50 18,8 C 17,2 C 15,6 C 70 % 0 lf 999,6 hPa 0,0 l/m 0 min 0 min 0 W/m 0,0 km/h (0 Bft) 93,48 %
29.06.2017 22:52 18,7 C 17,2 C 15,6 C 70 % 0 lf 999,6 hPa 0,0 l/m 0 min 0 min 0 W/m 0,0 km/h (0 Bft) 100,00 %
29.06.2017 22:54 18,7 C 17,2 C 15,6 C 71 % 0 lf 999,6 hPa 0,0 l/m 0 min 0 min 0 W/m 0,0 km/h (0 Bft) 95,74 %
29.06.2017 22:56 18,7 C 17,2 C 15,6 C 71 % 0 lf 999,7 hPa 0,0 l/m 0 min 0 min 0 W/m 0,0 km/h (0 Bft) 95,74 %
29.06.2017 22:58 18,6 C 16,7 C 15,6 C 71 % 0 lf 999,6 hPa 0,0 l/m 0 min 0 min 0 W/m 0,0 km/h (0 Bft) 97,87 %
29.06.2017 23:00 18,6 C 16,7 C 15,0 C 71 % 0 lf 999,6 hPa 0,0 l/m 0 min 0 min 0 W/m 0,0 km/h (0 Bft) 97,87 %
29.06.2017 23:02 18,5 C 16,7 C 15,0 C 71 % 0 lf 999,6 hPa 0,0 l/m 0 min 0 min 0 W/m 0,0 km/h (0 Bft) 97,83 %
29.06.2017 23:04 18,5 C 16,7 C 15,0 C 71 % 0 lf 999,7 hPa 0,0 l/m 0 min 0 min 0 W/m 0,0 km/h (0 Bft) 100,00 %
29.06.2017 23:06 18,4 C 16,7 C 15,0 C 71 % 0 lf 999,7 hPa 0,0 l/m 0 min 0 min 0 W/m 0,0 km/h (0 Bft) 96,30 %
29.06.2017 23:08 18,4 C 16,7 C 15,0 C 72 % 0 lf 999,7 hPa 0,0 l/m 0 min 0 min 0 W/m 0,0 km/h (0 Bft) 95,74 %
29.06.2017 23:10 18,3 C 16,7 C 15,0 C 72 % 0 lf 999,7 hPa 0,0 l/m 0 min 0 min 0 W/m 0,0 km/h (0 Bft) 97,87 %
29.06.2017 23:12 18,3 C 16,7 C 15,0 C 72 % 0 lf 999,7 hPa 0,0 l/m 0 min 0 min 0 W/m 0,0 km/h (0 Bft) 97,83 %
29.06.2017 23:14 18,3 C 16,7 C 15,0 C 72 % 0 lf 999,6 hPa 0,0 l/m 0 min 0 min 0 W/m 0,0 km/h (0 Bft) 100,00 %
29.06.2017 23:16 18,2 C 16,1 C 15,0 C 73 % 0 lf 999,7 hPa 0,0 l/m 0 min 0 min 0 W/m 0,0 km/h (0 Bft) 97,87 %
29.06.2017 23:18 18,2 C 16,1 C 15,0 C 73 % 0 lf 999,7 hPa 0,0 l/m 0 min 0 min 0 W/m 0,0 km/h (0 Bft) 97,87 %
29.06.2017 23:20 18,1 C 16,7 C 15,0 C 73 % 0 lf 999,8 hPa 0,0 l/m 0 min 0 min 0 W/m 0,0 km/h (0 Bft) 97,87 %
29.06.2017 23:22 18,1 C 16,7 C 15,0 C 73 % 0 lf 999,8 hPa 0,0 l/m 0 min 0 min 0 W/m 0,0 km/h (0 Bft) 97,87 %
29.06.2017 23:24 18,1 C 16,7 C 15,0 C 74 % 0 lf 999,8 hPa 0,0 l/m 0 min 0 min 0 W/m 0,0 km/h (0 Bft) 95,65 %
29.06.2017 23:26 18,0 C 16,1 C 14,4 C 74 % 0 lf 999,8 hPa 0,0 l/m 0 min 0 min 0 W/m 0,0 km/h (0 Bft) 95,74 %
29.06.2017 23:28 17,9 C 16,1 C 14,4 C 74 % 0 lf 999,7 hPa 0,0 l/m 0 min 0 min 0 W/m 0,0 km/h (0 Bft) 97,87 %
29.06.2017 23:30 17,9 C 16,1 C 14,4 C 74 % 0 lf 999,7 hPa 0,0 l/m 0 min 0 min 0 W/m 0,0 km/h (0 Bft) 97,87 %
29.06.2017 23:32 17,9 C 16,1 C 14,4 C 74 % 0 lf 999,7 hPa 0,0 l/m 0 min 0 min 0 W/m 0,0 km/h (0 Bft) 97,87 %
29.06.2017 23:34 17,8 C 16,1 C 14,4 C 75 % 0 lf 999,7 hPa 0,0 l/m 0 min 0 min 0 W/m 0,0 km/h (0 Bft) 97,83 %
29.06.2017 23:36 17,8 C 16,1 C 14,4 C 75 % 0 lf 999,7 hPa 0,0 l/m 0 min 0 min 0 W/m 0,0 km/h (0 Bft) 92,00 %
29.06.2017 23:38 17,7 C 15,6 C 14,4 C 75 % 0 lf 999,7 hPa 0,0 l/m 0 min 0 min 0 W/m 0,0 km/h (0 Bft) 97,87 %
29.06.2017 23:40 17,7 C 15,6 C 14,4 C 75 % 0 lf 999,8 hPa 0,0 l/m 0 min 0 min 0 W/m 0,0 km/h (0 Bft) 97,87 %
29.06.2017 23:42 17,6 C 15,6 C 14,4 C 75 % 0 lf 999,7 hPa 0,0 l/m 0 min 0 min 0 W/m 0,0 km/h (0 Bft) 95,74 %
29.06.2017 23:44 17,6 C 15,6 C 13,9 C 76 % 0 lf 999,7 hPa 0,0 l/m 0 min 0 min 0 W/m 0,0 km/h (0 Bft) 97,87 %
29.06.2017 23:46 17,5 C 15,6 C 13,9 C 76 % 0 lf 999,8 hPa 0,0 l/m 0 min 0 min 0 W/m 0,0 km/h (0 Bft) 93,48 %
29.06.2017 23:48 17,4 C 15,6 C 13,9 C 76 % 0 lf 999,8 hPa 0,0 l/m 0 min 0 min 4 W/m 0,0 km/h (0 Bft) 97,87 %
29.06.2017 23:50 17,4 C 15,6 C 13,9 C 76 % 0 lf 999,8 hPa 0,0 l/m 0 min 0 min 5 W/m 0,0 km/h (0 Bft) 95,74 %
29.06.2017 23:52 17,4 C 15,0 C 13,9 C 76 % 0 lf 999,8 hPa 0,0 l/m 0 min 0 min 0 W/m 0,0 km/h (0 Bft) 95,74 %
29.06.2017 23:54 17,3 C 15,0 C 13,9 C 76 % 0 lf 999,8 hPa 0,0 l/m 0 min 0 min 5 W/m 0,0 km/h (0 Bft) 95,74 %
29.06.2017 23:56 17,3 C 15,0 C 13,9 C 76 % 0 lf 999,7 hPa 0,0 l/m 0 min 0 min 5 W/m 0,0 km/h (0 Bft) 95,74 %
29.06.2017 23:58 17,2 C 15,0 C 13,9 C 76 % 0 lf 999,8 hPa 0,0 l/m 0 min 0 min 4 W/m 0,0 km/h (0 Bft) 93,48 %
_ Min-Zeit 03:02 02:36 01:34 16:18 07:30 01:04 - - - - 00:00 08:08
Minimum _ 15,7 C 14,4 C 13,3 C 58 % 0 lf 993,7 hPa - - - - 0,0 km/h (0 Bft) 86,96 %
_ Max-Zeit 16:08 14:54 14:40 03:48 02:36 23:20 04:56 13:20 05:56 14:40 08:58 00:58
Maximum _ 24,4 C 30,0 C 31,7 C 95 % 10 lf 999,8 hPa 0,2 l/m 4 min 2 min 948 W/m 37,7 km/h
SW (5 Bft)
100,00 %
Durchschnitt _ 19,5 C 20,3 C 19,5 C 77 % 1 lf 996,0 hPa #0,2 l/m #7:00 h #4 min. 225 W/m 12,1 km/h (2 Bft) 96,68 %
© 2017 W. Hausmann